Time,TemperatureF,DewpointF,PressureIn,WindDirection,WindDirectionDegrees,WindSpeedMPH,WindSpeedGustMPH,Humidity,HourlyPrecipIn,Conditions,Clouds,dailyrainin,SolarRadiationWatts/m^2,SoftwareType,DateUTC
2013-11-23 00:03:00,16.0,11.5,30.61,NW,323,0.0,1.0,82,0.00,,,0.00,0,Wunderground v.1.15,2013-11-23 06:03:00,
2013-11-23 00:04:00,16.0,11.5,30.62,NNW,345,1.0,1.0,82,0.00,,,0.00,0,Wunderground v.1.15,2013-11-23 06:04:00,
2013-11-23 00:05:00,16.0,11.5,30.62,NNW,336,0.0,1.0,82,0.00,,,0.00,0,Wunderground v.1.15,2013-11-23 06:05:00,
2013-11-23 00:07:00,16.0,11.7,30.62,NNW,331,3.0,3.0,83,0.00,,,0.00,0,Wunderground v.1.15,2013-11-23 06:07:00,
2013-11-23 00:09:00,16.0,11.7,30.62,NNW,335,0.0,3.0,83,0.00,,,0.00,0,Wunderground v.1.15,2013-11-23 06:09:00,
2013-11-23 00:10:00,16.0,11.7,30.62,NNW,346,0.0,1.0,83,0.00,,,0.00,0,Wunderground v.1.15,2013-11-23 06:10:00,
2013-11-23 00:12:00,16.0,11.7,30.62,NW,321,1.0,3.0,83,0.00,,,0.00,0,Wunderground v.1.15,2013-11-23 06:12:00,
2013-11-23 00:15:00,16.0,11.7,30.62,NNW,333,0.0,3.0,83,0.00,,,0.00,0,Wunderground v.1.15,2013-11-23 06:15:00,
2013-11-23 00:16:00,15.9,11.7,30.62,NNW,332,0.0,3.0,83,0.00,,,0.00,0,Wunderground v.1.15,2013-11-23 06:16:00,
2013-11-23 00:17:00,15.9,11.7,30.62,NNW,327,0.0,3.0,83,0.00,,,0.00,0,Wunderground v.1.15,2013-11-23 06:17:00,
2013-11-23 00:19:00,16.0,11.7,30.62,NNW,340,0.0,4.0,83,0.00,,,0.00,0,Wunderground v.1.15,2013-11-23 06:19:00,
2013-11-23 00:21:00,16.0,11.7,30.62,NW,321,4.0,4.0,83,0.00,,,0.00,0,Wunderground v.1.15,2013-11-23 06:21:00,
2013-11-23 00:23:00,16.0,11.7,30.63,NW,321,4.0,4.0,83,0.00,,,0.00,0,Wunderground v.1.15,2013-11-23 06:23:00,
2013-11-23 00:24:00,16.0,11.7,30.63,NW,320,4.0,4.0,83,0.00,,,0.00,0,Wunderground v.1.15,2013-11-23 06:24:00,
2013-11-23 00:26:00,16.0,11.7,30.63,NW,321,4.0,4.0,83,0.00,,,0.00,0,Wunderground v.1.15,2013-11-23 06:26:00,
2013-11-23 00:28:00,15.9,11.7,30.63,NW,319,5.0,5.0,83,0.00,,,0.00,0,Wunderground v.1.15,2013-11-23 06:28:00,
2013-11-23 00:30:00,15.8,11.6,30.63,NW,324,1.0,3.0,83,0.00,,,0.00,0,Wunderground v.1.15,2013-11-23 06:30:00,
2013-11-23 00:32:00,15.8,11.6,30.63,NW,324,2.0,3.0,83,0.00,,,0.00,0,Wunderground v.1.15,2013-11-23 06:32:00,
2013-11-23 00:33:00,15.8,11.6,30.63,NW,323,0.0,3.0,83,0.00,,,0.00,0,Wunderground v.1.15,2013-11-23 06:33:00,
2013-11-23 00:34:00,15.7,11.5,30.63,NW,323,2.0,3.0,83,0.00,,,0.00,0,Wunderground v.1.15,2013-11-23 06:34:00,
2013-11-23 00:35:00,15.8,11.8,30.63,NW,324,0.0,3.0,84,0.00,,,0.00,0,Wunderground v.1.15,2013-11-23 06:35:00,
2013-11-23 00:38:00,15.8,11.8,30.63,NW,321,2.0,3.0,84,0.00,,,0.00,0,Wunderground v.1.15,2013-11-23 06:38:00,
2013-11-23 00:40:00,15.8,11.8,30.63,NNW,332,0.0,2.0,84,0.00,,,0.00,0,Wunderground v.1.15,2013-11-23 06:40:00,
2013-11-23 00:41:00,15.9,11.9,30.64,NW,319,2.0,2.0,84,0.00,,,0.00,0,Wunderground v.1.15,2013-11-23 06:41:00,
2013-11-23 00:45:00,16.0,12.0,30.64,NW,316,6.0,6.0,84,0.00,,,0.00,0,Wunderground v.1.15,2013-11-23 06:45:00,
2013-11-23 00:47:00,16.0,12.0,30.64,NNW,331,6.0,6.0,84,0.00,,,0.00,0,Wunderground v.1.15,2013-11-23 06:47:00,
2013-11-23 00:49:00,16.0,12.0,30.64,NW,321,1.0,6.0,84,0.00,,,0.00,0,Wunderground v.1.15,2013-11-23 06:49:00,
2013-11-23 00:50:00,15.9,11.9,30.64,NW,323,1.0,4.0,84,0.00,,,0.00,0,Wunderground v.1.15,2013-11-23 06:50:00,
2013-11-23 00:53:00,16.2,12.2,30.64,NW,318,1.0,4.0,84,0.00,,,0.00,0,Wunderground v.1.15,2013-11-23 06:53:00,
2013-11-23 00:54:00,16.4,12.4,30.64,NW,325,1.0,4.0,84,0.00,,,0.00,0,Wunderground v.1.15,2013-11-23 06:54:00,
2013-11-23 00:56:00,16.8,13.1,30.64,NNW,340,0.0,4.0,85,0.00,,,0.00,0,Wunderground v.1.15,2013-11-23 06:56:00,
2013-11-23 00:57:00,17.0,13.3,30.64,NNW,342,0.0,4.0,85,0.00,,,0.00,0,Wunderground v.1.15,2013-11-23 06:57:00,
2013-11-23 00:58:00,17.2,13.2,30.65,NNW,340,0.0,4.0,84,0.00,,,0.00,0,Wunderground v.1.15,2013-11-23 06:58:00,
2013-11-23 01:02:00,17.7,13.4,30.65,NNW,327,1.0,2.0,83,0.00,,,0.00,0,Wunderground v.1.15,2013-11-23 07:02:00,
2013-11-23 01:03:00,17.7,13.4,30.65,NW,324,0.0,2.0,83,0.00,,,0.00,0,Wunderground v.1.15,2013-11-23 07:03:00,
2013-11-23 01:04:00,17.8,13.5,30.65,North,355,0.0,2.0,83,0.00,,,0.00,0,Wunderground v.1.15,2013-11-23 07:04:00,
2013-11-23 01:08:00,18.1,13.8,30.65,North,9,0.0,2.0,83,0.00,,,0.00,0,Wunderground v.1.15,2013-11-23 07:08:00,
2013-11-23 01:09:00,18.1,13.8,30.65,NNE,16,0.0,2.0,83,0.00,,,0.00,0,Wunderground v.1.15,2013-11-23 07:09:00,
2013-11-23 01:10:00,18.1,13.5,30.65,North,355,3.0,3.0,82,0.00,,,0.00,0,Wunderground v.1.15,2013-11-23 07:10:00,
2013-11-23 01:11:00,18.1,13.5,30.65,NNW,346,0.0,3.0,82,0.00,,,0.00,0,Wunderground v.1.15,2013-11-23 07:11:00,
2013-11-23 01:14:00,18.2,13.6,30.65,NW,326,4.0,4.0,82,0.00,,,0.00,0,Wunderground v.1.15,2013-11-23 07:14:00,
2013-11-23 01:16:00,18.2,13.6,30.65,WNW,300,1.0,4.0,82,0.00,,,0.00,0,Wunderground v.1.15,2013-11-23 07:16:00,
2013-11-23 01:18:00,18.2,13.6,30.65,NNW,345,5.0,5.0,82,0.00,,,0.00,0,Wunderground v.1.15,2013-11-23 07:18:00,
2013-11-23 01:19:00,18.2,13.6,30.65,North,350,2.0,5.0,82,0.00,,,0.00,0,Wunderground v.1.15,2013-11-23 07:19:00,
2013-11-23 01:21:00,18.3,13.7,30.65,NNW,346,0.0,5.0,82,0.00,,,0.00,0,Wunderground v.1.15,2013-11-23 07:21:00,
2013-11-23 01:26:00,18.5,13.6,30.65,North,355,3.0,5.0,81,0.00,,,0.00,0,Wunderground v.1.15,2013-11-23 07:26:00,
2013-11-23 01:27:00,18.4,13.5,30.65,NNW,342,0.0,5.0,81,0.00,,,0.00,0,Wunderground v.1.15,2013-11-23 07:27:00,
2013-11-23 01:28:00,18.4,13.5,30.65,NW,321,0.0,5.0,81,0.00,,,0.00,0,Wunderground v.1.15,2013-11-23 07:28:00,
2013-11-23 01:30:00,18.4,13.5,30.65,NNW,336,0.0,1.0,81,0.00,,,0.00,0,Wunderground v.1.15,2013-11-23 07:30:00,
2013-11-23 01:31:00,18.4,13.5,30.65,NW,321,1.0,1.0,81,0.00,,,0.00,0,Wunderground v.1.15,2013-11-23 07:31:00,
2013-11-23 01:33:00,18.3,13.4,30.65,North,5,0.0,1.0,81,0.00,,,0.00,0,Wunderground v.1.15,2013-11-23 07:33:00,
2013-11-23 01:34:00,18.3,13.4,30.65,NW,320,0.0,1.0,81,0.00,,,0.00,0,Wunderground v.1.15,2013-11-23 07:34:00,
2013-11-23 01:36:00,18.4,13.5,30.65,NNW,344,3.0,3.0,81,0.00,,,0.00,0,Wunderground v.1.15,2013-11-23 07:36:00,
2013-11-23 01:39:00,18.5,13.6,30.65,NW,315,3.0,6.0,81,0.00,,,0.00,0,Wunderground v.1.15,2013-11-23 07:39:00,
2013-11-23 01:40:00,18.5,13.6,30.65,NW,312,0.0,2.0,81,0.00,,,0.00,0,Wunderground v.1.15,2013-11-23 07:40:00,
2013-11-23 01:42:00,18.6,13.7,30.65,North,10,5.0,5.0,81,0.00,,,0.00,0,Wunderground v.1.15,2013-11-23 07:42:00,
2013-11-23 01:43:00,18.6,13.7,30.65,North,11,5.0,5.0,81,0.00,,,0.00,0,Wunderground v.1.15,2013-11-23 07:43:00,
2013-11-23 01:46:00,18.7,13.6,30.66,NNW,340,1.0,5.0,80,0.00,,,0.00,0,Wunderground v.1.15,2013-11-23 07:46:00,
2013-11-23 01:49:00,18.7,13.6,30.66,NW,315,1.0,6.0,80,0.00,,,0.00,0,Wunderground v.1.15,2013-11-23 07:49:00,
2013-11-23 01:53:00,18.7,13.6,30.66,NNE,12,3.0,3.0,80,0.00,,,0.00,0,Wunderground v.1.15,2013-11-23 07:53:00,
2013-11-23 01:54:00,18.7,13.6,30.66,NE,49,4.0,4.0,80,0.00,,,0.00,0,Wunderground v.1.15,2013-11-23 07:54:00,
2013-11-23 01:55:00,18.8,13.7,30.66,NNE,19,1.0,4.0,80,0.00,,,0.00,0,Wunderground v.1.15,2013-11-23 07:55:00,
2013-11-23 01:57:00,18.8,13.7,30.66,North,355,0.0,4.0,80,0.00,,,0.00,0,Wunderground v.1.15,2013-11-23 07:57:00,
2013-11-23 01:58:00,18.9,13.7,30.66,NE,37,7.0,7.0,80,0.00,,,0.00,0,Wunderground v.1.15,2013-11-23 07:58:00,
2013-11-23 01:59:00,18.9,13.7,30.66,North,355,7.0,7.0,80,0.00,,,0.00,0,Wunderground v.1.15,2013-11-23 07:59:00,
2013-11-23 02:00:00,18.9,13.7,30.66,NNW,340,0.0,3.0,80,0.00,,,0.00,0,Wunderground v.1.15,2013-11-23 08:00:00,
2013-11-23 02:01:00,18.9,13.7,30.66,North,360,1.0,3.0,80,0.00,,,0.00,0,Wunderground v.1.15,2013-11-23 08:01:00,
2013-11-23 02:02:00,18.9,13.7,30.66,NNW,342,2.0,5.0,80,0.00,,,0.00,0,Wunderground v.1.15,2013-11-23 08:02:00,
2013-11-23 02:03:00,18.9,13.7,30.66,NNE,31,3.0,5.0,80,0.00,,,0.00,0,Wunderground v.1.15,2013-11-23 08:03:00,
2013-11-23 02:04:00,18.9,13.7,30.66,NNW,339,1.0,5.0,80,0.00,,,0.00,0,Wunderground v.1.15,2013-11-23 08:04:00,
2013-11-23 02:06:00,18.8,13.7,30.66,NNW,338,2.0,7.0,80,0.00,,,0.00,0,Wunderground v.1.15,2013-11-23 08:06:00,
2013-11-23 02:07:00,18.8,13.7,30.66,NNE,19,1.0,7.0,80,0.00,,,0.00,0,Wunderground v.1.15,2013-11-23 08:07:00,
2013-11-23 02:08:00,18.8,13.7,30.67,NNW,333,2.0,7.0,80,0.00,,,0.00,0,Wunderground v.1.15,2013-11-23 08:08:00,
2013-11-23 02:09:00,18.8,13.7,30.67,NNW,327,2.0,7.0,80,0.00,,,0.00,0,Wunderground v.1.15,2013-11-23 08:09:00,
2013-11-23 02:11:00,18.6,13.7,30.67,NNW,338,6.0,6.0,81,0.00,,,0.00,0,Wunderground v.1.15,2013-11-23 08:11:00,
2013-11-23 02:12:00,18.6,13.7,30.67,NNE,27,2.0,6.0,81,0.00,,,0.00,0,Wunderground v.1.15,2013-11-23 08:12:00,
2013-11-23 02:13:00,18.6,13.7,30.67,NW,326,3.0,6.0,81,0.00,,,0.00,0,Wunderground v.1.15,2013-11-23 08:13:00,
2013-11-23 02:14:00,18.6,13.7,30.67,NNW,335,3.0,8.0,81,0.00,,,0.00,0,Wunderground v.1.15,2013-11-23 08:14:00,
2013-11-23 02:16:00,18.5,13.6,30.67,NW,304,1.0,8.0,81,0.00,,,0.00,0,Wunderground v.1.15,2013-11-23 08:16:00,
2013-11-23 02:17:00,18.5,13.6,30.67,NW,313,3.0,8.0,81,0.00,,,0.00,0,Wunderground v.1.15,2013-11-23 08:17:00,
2013-11-23 02:18:00,18.4,13.5,30.67,North,360,1.0,8.0,81,0.00,,,0.00,0,Wunderground v.1.15,2013-11-23 08:18:00,
2013-11-23 02:19:00,18.4,13.5,30.67,NW,315,1.0,8.0,81,0.00,,,0.00,0,Wunderground v.1.15,2013-11-23 08:19:00,
2013-11-23 02:22:00,18.3,13.4,30.67,NW,319,5.0,6.0,81,0.00,,,0.00,0,Wunderground v.1.15,2013-11-23 08:22:00,
2013-11-23 02:23:00,18.3,13.7,30.67,NW,323,5.0,6.0,82,0.00,,,0.00,0,Wunderground v.1.15,2013-11-23 08:23:00,
2013-11-23 02:24:00,18.2,13.6,30.67,NNW,333,0.0,9.0,82,0.00,,,0.00,0,Wunderground v.1.15,2013-11-23 08:24:00,
2013-11-23 02:27:00,18.3,13.7,30.68,NW,324,7.0,9.0,82,0.00,,,0.00,0,Wunderground v.1.15,2013-11-23 08:27:00,
2013-11-23 02:28:00,18.3,13.7,30.68,North,355,3.0,9.0,82,0.00,,,0.00,0,Wunderground v.1.15,2013-11-23 08:28:00,
2013-11-23 02:29:00,18.2,13.6,30.68,NNW,333,0.0,9.0,82,0.00,,,0.00,0,Wunderground v.1.15,2013-11-23 08:29:00,
2013-11-23 02:32:00,18.2,13.3,30.68,NE,53,0.0,7.0,81,0.00,,,0.00,0,Wunderground v.1.15,2013-11-23 08:32:00,
2013-11-23 02:33:00,18.3,13.4,30.68,WNW,302,1.0,9.0,81,0.00,,,0.00,0,Wunderground v.1.15,2013-11-23 08:33:00,
2013-11-23 02:34:00,18.2,13.3,30.68,NNW,333,1.0,9.0,81,0.00,,,0.00,0,Wunderground v.1.15,2013-11-23 08:34:00,
2013-11-23 02:37:00,18.2,13.6,30.68,NNW,347,2.0,9.0,82,0.00,,,0.00,0,Wunderground v.1.15,2013-11-23 08:37:00,
2013-11-23 02:38:00,18.2,13.6,30.68,NNW,335,1.0,9.0,82,0.00,,,0.00,0,Wunderground v.1.15,2013-11-23 08:38:00,
2013-11-23 02:39:00,18.1,13.5,30.68,NW,318,6.0,9.0,82,0.00,,,0.00,0,Wunderground v.1.15,2013-11-23 08:39:00,
2013-11-23 02:42:00,18.1,13.5,30.68,NW,311,3.0,8.0,82,0.00,,,0.00,0,Wunderground v.1.15,2013-11-23 08:42:00,
2013-11-23 02:43:00,18.0,13.4,30.68,NW,325,4.0,8.0,82,0.00,,,0.00,0,Wunderground v.1.15,2013-11-23 08:43:00,
2013-11-23 02:44:00,18.0,13.4,30.68,NW,321,6.0,8.0,82,0.00,,,0.00,0,Wunderground v.1.15,2013-11-23 08:44:00,
2013-11-23 02:47:00,17.8,13.2,30.68,NW,319,6.0,8.0,82,0.00,,,0.00,0,Wunderground v.1.15,2013-11-23 08:47:00,
2013-11-23 02:48:00,17.8,13.2,30.68,NW,318,5.0,8.0,82,0.00,,,0.00,0,Wunderground v.1.15,2013-11-23 08:48:00,
2013-11-23 02:49:00,17.7,13.4,30.68,NW,319,6.0,8.0,83,0.00,,,0.00,0,Wunderground v.1.15,2013-11-23 08:49:00,
2013-11-23 02:50:00,17.7,13.4,30.68,NW,317,7.0,7.0,83,0.00,,,0.00,0,Wunderground v.1.15,2013-11-23 08:50:00,
2013-11-23 02:52:00,17.6,13.3,30.68,NW,317,6.0,8.0,83,0.00,,,0.00,0,Wunderground v.1.15,2013-11-23 08:52:00,
2013-11-23 02:53:00,17.5,13.2,30.68,NW,314,7.0,8.0,83,0.00,,,0.00,0,Wunderground v.1.15,2013-11-23 08:53:00,
2013-11-23 02:54:00,17.5,13.2,30.68,NW,313,5.0,8.0,83,0.00,,,0.00,0,Wunderground v.1.15,2013-11-23 08:54:00,
2013-11-23 02:55:00,17.4,13.1,30.68,NW,313,6.0,8.0,83,0.00,,,0.00,0,Wunderground v.1.15,2013-11-23 08:55:00,
2013-11-23 02:57:00,17.3,13.0,30.69,NW,315,6.0,8.0,83,0.00,,,0.00,0,Wunderground v.1.15,2013-11-23 08:57:00,
2013-11-23 02:58:00,17.2,12.9,30.69,NW,319,8.0,8.0,83,0.00,,,0.00,0,Wunderground v.1.15,2013-11-23 08:58:00,
2013-11-23 03:00:00,17.1,12.8,30.68,WNW,303,9.0,9.0,83,0.00,,,0.00,0,Wunderground v.1.15,2013-11-23 09:00:00,
2013-11-23 03:01:00,17.1,12.8,30.68,NNW,342,5.0,9.0,83,0.00,,,0.00,0,Wunderground v.1.15,2013-11-23 09:01:00,
2013-11-23 03:03:00,17.0,12.7,30.68,NW,317,3.0,9.0,83,0.00,,,0.00,0,Wunderground v.1.15,2013-11-23 09:03:00,
2013-11-23 03:05:00,17.0,12.5,30.69,NNW,346,5.0,9.0,82,0.00,,,0.00,0,Wunderground v.1.15,2013-11-23 09:05:00,
2013-11-23 03:07:00,17.0,12.2,30.68,NW,326,1.0,9.0,81,0.00,,,0.00,0,Wunderground v.1.15,2013-11-23 09:07:00,
2013-11-23 03:08:00,16.9,12.1,30.68,North,5,6.0,11.0,81,0.00,,,0.00,0,Wunderground v.1.15,2013-11-23 09:08:00,
2013-11-23 03:10:00,16.9,11.8,30.69,NNW,348,4.0,6.0,80,0.00,,,0.00,0,Wunderground v.1.15,2013-11-23 09:10:00,
2013-11-23 03:12:00,16.8,11.4,30.69,NNW,335,5.0,10.0,79,0.00,,,0.00,0,Wunderground v.1.15,2013-11-23 09:12:00,
2013-11-23 03:14:00,16.8,11.1,30.69,NNW,348,5.0,10.0,78,0.00,,,0.00,0,Wunderground v.1.15,2013-11-23 09:14:00,
2013-11-23 03:15:00,16.7,11.0,30.69,NNW,344,1.0,10.0,78,0.00,,,0.00,0,Wunderground v.1.15,2013-11-23 09:15:00,
2013-11-23 03:17:00,16.6,10.9,30.68,NNW,338,3.0,10.0,78,0.00,,,0.00,0,Wunderground v.1.15,2013-11-23 09:17:00,
2013-11-23 03:19:00,16.5,10.5,30.69,NW,321,5.0,10.0,77,0.00,,,0.00,0,Wunderground v.1.15,2013-11-23 09:19:00,
2013-11-23 03:20:00,16.5,10.5,30.69,North,350,1.0,3.0,77,0.00,,,0.00,0,Wunderground v.1.15,2013-11-23 09:20:00,
2013-11-23 03:21:00,16.5,10.3,30.69,NNW,333,5.0,6.0,76,0.00,,,0.00,0,Wunderground v.1.15,2013-11-23 09:21:00,
2013-11-23 03:22:00,16.4,10.4,30.69,North,349,3.0,6.0,77,0.00,,,0.00,0,Wunderground v.1.15,2013-11-23 09:22:00,
2013-11-23 03:24:00,16.3,10.1,30.69,NW,319,3.0,9.0,76,0.00,,,0.00,0,Wunderground v.1.15,2013-11-23 09:24:00,
2013-11-23 03:25:00,16.3,10.1,30.69,NNW,343,0.0,9.0,76,0.00,,,0.00,0,Wunderground v.1.15,2013-11-23 09:25:00,
2013-11-23 03:26:00,16.2,10.0,30.69,NNW,331,1.0,9.0,76,0.00,,,0.00,0,Wunderground v.1.15,2013-11-23 09:26:00,
2013-11-23 03:28:00,16.1,9.9,30.69,North,355,2.0,9.0,76,0.00,,,0.00,0,Wunderground v.1.15,2013-11-23 09:28:00,
2013-11-23 03:30:00,16.0,9.8,30.69,NNW,341,3.0,8.0,76,0.00,,,0.00,0,Wunderground v.1.15,2013-11-23 09:30:00,
2013-11-23 03:31:00,15.9,9.7,30.69,NW,321,4.0,8.0,76,0.00,,,0.00,0,Wunderground v.1.15,2013-11-23 09:31:00,
2013-11-23 03:33:00,15.8,9.6,30.69,North,360,6.0,8.0,76,0.00,,,0.00,0,Wunderground v.1.15,2013-11-23 09:33:00,
2013-11-23 03:35:00,15.7,9.5,30.69,North,355,0.0,8.0,76,0.00,,,0.00,0,Wunderground v.1.15,2013-11-23 09:35:00,
2013-11-23 03:36:00,15.6,9.4,30.69,North,350,3.0,8.0,76,0.00,,,0.00,0,Wunderground v.1.15,2013-11-23 09:36:00,
2013-11-23 03:37:00,15.5,9.3,30.69,NE,36,2.0,8.0,76,0.00,,,0.00,0,Wunderground v.1.15,2013-11-23 09:37:00,
2013-11-23 03:38:00,15.4,9.2,30.69,North,350,2.0,8.0,76,0.00,,,0.00,0,Wunderground v.1.15,2013-11-23 09:38:00,
2013-11-23 03:40:00,15.3,9.1,30.69,NE,40,1.0,7.0,76,0.00,,,0.00,0,Wunderground v.1.15,2013-11-23 09:40:00,
2013-11-23 03:41:00,15.3,9.1,30.69,NW,311,4.0,7.0,76,0.00,,,0.00,0,Wunderground v.1.15,2013-11-23 09:41:00,
2013-11-23 03:42:00,15.2,8.7,30.69,NW,315,2.0,7.0,75,0.00,,,0.00,0,Wunderground v.1.15,2013-11-23 09:42:00,
2013-11-23 03:43:00,15.2,8.7,30.69,North,355,2.0,7.0,75,0.00,,,0.00,0,Wunderground v.1.15,2013-11-23 09:43:00,
2013-11-23 03:45:00,15.1,8.6,30.69,NNW,327,4.0,7.0,75,0.00,,,0.00,0,Wunderground v.1.15,2013-11-23 09:45:00,
2013-11-23 03:46:00,15.0,8.8,30.69,NNW,341,0.0,7.0,76,0.00,,,0.00,0,Wunderground v.1.15,2013-11-23 09:46:00,
2013-11-23 03:47:00,15.0,8.8,30.69,North,355,2.0,7.0,76,0.00,,,0.00,0,Wunderground v.1.15,2013-11-23 09:47:00,
2013-11-23 03:49:00,14.8,8.6,30.69,North,350,0.0,8.0,76,0.00,,,0.00,0,Wunderground v.1.15,2013-11-23 09:49:00,
2013-11-23 03:50:00,14.8,8.6,30.69,NW,311,6.0,7.0,76,0.00,,,0.00,0,Wunderground v.1.15,2013-11-23 09:50:00,
2013-11-23 03:51:00,14.8,8.6,30.69,NNW,332,0.0,10.0,76,0.00,,,0.00,0,Wunderground v.1.15,2013-11-23 09:51:00,
2013-11-23 03:53:00,14.8,8.6,30.70,NNW,343,0.0,10.0,76,0.00,,,0.00,0,Wunderground v.1.15,2013-11-23 09:53:00,
2013-11-23 03:54:00,14.8,8.6,30.70,NNE,30,6.0,11.0,76,0.00,,,0.00,0,Wunderground v.1.15,2013-11-23 09:54:00,
2013-11-23 03:55:00,14.7,8.5,30.70,NE,42,0.0,11.0,76,0.00,,,0.00,0,Wunderground v.1.15,2013-11-23 09:55:00,
2013-11-23 03:56:00,14.7,8.5,30.70,North,350,3.0,11.0,76,0.00,,,0.00,0,Wunderground v.1.15,2013-11-23 09:56:00,
2013-11-23 03:58:00,14.7,8.5,30.70,NW,321,2.0,11.0,76,0.00,,,0.00,0,Wunderground v.1.15,2013-11-23 09:58:00,
2013-11-23 03:59:00,14.6,8.4,30.70,North,355,3.0,11.0,76,0.00,,,0.00,0,Wunderground v.1.15,2013-11-23 09:59:00,
2013-11-23 04:00:00,14.6,8.4,30.70,NW,323,6.0,7.0,76,0.00,,,0.00,0,Wunderground v.1.15,2013-11-23 10:00:00,
2013-11-23 04:02:00,14.6,8.4,30.70,North,360,5.0,7.0,76,0.00,,,0.00,0,Wunderground v.1.15,2013-11-23 10:02:00,
2013-11-23 04:03:00,14.6,8.4,30.70,NNW,339,3.0,7.0,76,0.00,,,0.00,0,Wunderground v.1.15,2013-11-23 10:03:00,
2013-11-23 04:04:00,14.5,8.3,30.70,NW,315,3.0,7.0,76,0.00,,,0.00,0,Wunderground v.1.15,2013-11-23 10:04:00,
2013-11-23 04:05:00,14.5,8.3,30.70,NW,323,4.0,7.0,76,0.00,,,0.00,0,Wunderground v.1.15,2013-11-23 10:05:00,
2013-11-23 04:07:00,14.5,8.3,30.70,NW,326,1.0,7.0,76,0.00,,,0.00,0,Wunderground v.1.15,2013-11-23 10:07:00,
2013-11-23 04:09:00,14.4,8.5,30.70,North,350,2.0,11.0,77,0.00,,,0.00,0,Wunderground v.1.15,2013-11-23 10:09:00,
2013-11-23 04:10:00,14.4,8.5,30.70,NW,324,4.0,9.0,77,0.00,,,0.00,0,Wunderground v.1.15,2013-11-23 10:10:00,
2013-11-23 04:11:00,14.4,8.5,30.70,NNW,335,6.0,9.0,77,0.00,,,0.00,0,Wunderground v.1.15,2013-11-23 10:11:00,
2013-11-23 04:12:00,14.4,8.5,30.70,NNW,341,3.0,9.0,77,0.00,,,0.00,0,Wunderground v.1.15,2013-11-23 10:12:00,
2013-11-23 04:14:00,14.3,8.4,30.70,NNW,337,5.0,9.0,77,0.00,,,0.00,0,Wunderground v.1.15,2013-11-23 10:14:00,
2013-11-23 04:16:00,14.3,8.4,30.71,NNW,342,3.0,9.0,77,0.00,,,0.00,0,Wunderground v.1.15,2013-11-23 10:16:00,
2013-11-23 04:17:00,14.3,8.4,30.71,North,355,5.0,9.0,77,0.00,,,0.00,0,Wunderground v.1.15,2013-11-23 10:17:00,
2013-11-23 04:19:00,14.3,8.4,30.71,NNW,329,5.0,11.0,77,0.00,,,0.00,0,Wunderground v.1.15,2013-11-23 10:19:00,
2013-11-23 04:21:00,14.3,8.4,30.71,North,9,6.0,9.0,77,0.00,,,0.00,0,Wunderground v.1.15,2013-11-23 10:21:00,
2013-11-23 04:23:00,14.3,8.4,30.71,NNW,331,12.0,12.0,77,0.00,,,0.00,0,Wunderground v.1.15,2013-11-23 10:23:00,
2013-11-23 04:24:00,14.2,8.3,30.71,NW,319,9.0,12.0,77,0.00,,,0.00,0,Wunderground v.1.15,2013-11-23 10:24:00,
2013-11-23 04:26:00,14.1,8.2,30.71,NNE,23,3.0,12.0,77,0.00,,,0.00,0,Wunderground v.1.15,2013-11-23 10:26:00,
2013-11-23 04:28:00,14.1,7.9,30.71,NNW,329,5.0,12.0,76,0.00,,,0.00,0,Wunderground v.1.15,2013-11-23 10:28:00,
2013-11-23 04:30:00,14.1,7.9,30.71,NNE,25,4.0,5.0,76,0.00,,,0.00,0,Wunderground v.1.15,2013-11-23 10:30:00,
2013-11-23 04:31:00,14.0,7.8,30.72,NW,321,6.0,10.0,76,0.00,,,0.00,0,Wunderground v.1.15,2013-11-23 10:31:00,
2013-11-23 04:33:00,13.9,7.7,30.72,NNW,338,7.0,10.0,76,0.00,,,0.00,0,Wunderground v.1.15,2013-11-23 10:33:00,
2013-11-23 04:35:00,13.9,7.7,30.71,NNW,334,2.0,10.0,76,0.00,,,0.00,0,Wunderground v.1.15,2013-11-23 10:35:00,
2013-11-23 04:36:00,13.9,7.7,30.71,NNW,335,7.0,10.0,76,0.00,,,0.00,0,Wunderground v.1.15,2013-11-23 10:36:00,
2013-11-23 04:37:00,13.8,7.6,30.71,NNW,333,7.0,10.0,76,0.00,,,0.00,0,Wunderground v.1.15,2013-11-23 10:37:00,
2013-11-23 04:38:00,13.8,7.6,30.72,NNW,327,4.0,10.0,76,0.00,,,0.00,0,Wunderground v.1.15,2013-11-23 10:38:00,
2013-11-23 04:41:00,13.7,7.5,30.72,North,355,3.0,7.0,76,0.00,,,0.00,0,Wunderground v.1.15,2013-11-23 10:41:00,
2013-11-23 04:42:00,13.7,7.5,30.72,NW,321,5.0,7.0,76,0.00,,,0.00,0,Wunderground v.1.15,2013-11-23 10:42:00,
2013-11-23 04:44:00,13.6,7.4,30.72,North,360,4.0,12.0,76,0.00,,,0.00,0,Wunderground v.1.15,2013-11-23 10:44:00,
2013-11-23 04:46:00,13.6,7.4,30.72,NW,325,6.0,12.0,76,0.00,,,0.00,0,Wunderground v.1.15,2013-11-23 10:46:00,
2013-11-23 04:47:00,13.6,7.4,30.72,NNW,327,3.0,12.0,76,0.00,,,0.00,0,Wunderground v.1.15,2013-11-23 10:47:00,
2013-11-23 04:48:00,13.6,7.4,30.73,NNW,344,8.0,14.0,76,0.00,,,0.00,0,Wunderground v.1.15,2013-11-23 10:48:00,
2013-11-23 04:49:00,13.5,7.3,30.73,North,355,4.0,14.0,76,0.00,,,0.00,0,Wunderground v.1.15,2013-11-23 10:49:00,
2013-11-23 04:51:00,13.4,7.2,30.73,NNW,345,0.0,6.0,76,0.00,,,0.00,0,Wunderground v.1.15,2013-11-23 10:51:00,
2013-11-23 04:52:00,13.4,7.2,30.73,North,355,1.0,6.0,76,0.00,,,0.00,0,Wunderground v.1.15,2013-11-23 10:52:00,
2013-11-23 04:53:00,13.4,7.2,30.73,NNW,333,7.0,7.0,76,0.00,,,0.00,0,Wunderground v.1.15,2013-11-23 10:53:00,
2013-11-23 04:54:00,13.4,7.2,30.73,NNW,348,3.0,8.0,76,0.00,,,0.00,0,Wunderground v.1.15,2013-11-23 10:54:00,
2013-11-23 04:56:00,13.4,7.2,30.73,North,350,8.0,9.0,76,0.00,,,0.00,0,Wunderground v.1.15,2013-11-23 10:56:00,
2013-11-23 04:57:00,13.3,7.1,30.73,NNW,338,7.0,12.0,76,0.00,,,0.00,0,Wunderground v.1.15,2013-11-23 10:57:00,
2013-11-23 04:58:00,13.3,7.1,30.73,North,360,2.0,12.0,76,0.00,,,0.00,0,Wunderground v.1.15,2013-11-23 10:58:00,
2013-11-23 05:00:00,13.3,7.4,30.74,NW,325,10.0,10.0,77,0.00,,,0.00,0,Wunderground v.1.15,2013-11-23 11:00:00,
2013-11-23 05:01:00,13.2,7.3,30.73,NW,321,4.0,11.0,77,0.00,,,0.00,0,Wunderground v.1.15,2013-11-23 11:01:00,
2013-11-23 05:03:00,13.2,7.3,30.73,North,355,4.0,11.0,77,0.00,,,0.00,0,Wunderground v.1.15,2013-11-23 11:03:00,
2013-11-23 05:04:00,13.2,7.0,30.74,NW,321,8.0,11.0,76,0.00,,,0.00,0,Wunderground v.1.15,2013-11-23 11:04:00,
2013-11-23 05:05:00,13.1,7.2,30.73,NNE,30,9.0,11.0,77,0.00,,,0.00,0,Wunderground v.1.15,2013-11-23 11:05:00,
2013-11-23 05:07:00,13.0,6.9,30.74,WNW,288,5.0,11.0,76,0.00,,,0.00,0,Wunderground v.1.15,2013-11-23 11:07:00,
2013-11-23 05:08:00,13.0,6.9,30.74,NW,325,6.0,11.0,76,0.00,,,0.00,0,Wunderground v.1.15,2013-11-23 11:08:00,
2013-11-23 05:09:00,13.0,6.9,30.74,NNW,337,2.0,11.0,76,0.00,,,0.00,0,Wunderground v.1.15,2013-11-23 11:09:00,
2013-11-23 05:11:00,13.0,6.9,30.74,NNW,338,0.0,12.0,76,0.00,,,0.00,0,Wunderground v.1.15,2013-11-23 11:11:00,
2013-11-23 05:12:00,12.9,6.8,30.74,NNW,327,6.0,12.0,76,0.00,,,0.00,0,Wunderground v.1.15,2013-11-23 11:12:00,
2013-11-23 05:14:00,12.8,6.7,30.74,NNW,345,7.0,12.0,76,0.00,,,0.00,0,Wunderground v.1.15,2013-11-23 11:14:00,
2013-11-23 05:16:00,12.7,6.6,30.74,NNW,327,4.0,12.0,76,0.00,,,0.00,0,Wunderground v.1.15,2013-11-23 11:16:00,
2013-11-23 05:17:00,12.7,6.6,30.74,NW,320,5.0,12.0,76,0.00,,,0.00,0,Wunderground v.1.15,2013-11-23 11:17:00,
2013-11-23 05:19:00,12.7,6.6,30.74,NNW,327,6.0,12.0,76,0.00,,,0.00,0,Wunderground v.1.15,2013-11-23 11:19:00,
2013-11-23 05:20:00,12.7,6.6,30.74,NW,323,4.0,12.0,76,0.00,,,0.00,0,Wunderground v.1.15,2013-11-23 11:20:00,
2013-11-23 05:21:00,12.6,6.5,30.74,NNW,339,3.0,14.0,76,0.00,,,0.00,0,Wunderground v.1.15,2013-11-23 11:21:00,
2013-11-23 05:23:00,12.6,6.5,30.74,NNW,335,6.0,14.0,76,0.00,,,0.00,0,Wunderground v.1.15,2013-11-23 11:23:00,
2013-11-23 05:24:00,12.6,6.8,30.75,North,360,6.0,14.0,77,0.00,,,0.00,0,Wunderground v.1.15,2013-11-23 11:24:00,
2013-11-23 05:25:00,12.6,6.8,30.75,NW,323,3.0,14.0,77,0.00,,,0.00,0,Wunderground v.1.15,2013-11-23 11:25:00,
2013-11-23 05:26:00,12.5,6.7,30.75,North,355,4.0,14.0,77,0.00,,,0.00,0,Wunderground v.1.15,2013-11-23 11:26:00,
2013-11-23 05:28:00,12.5,6.7,30.75,NNW,336,5.0,14.0,77,0.00,,,0.00,0,Wunderground v.1.15,2013-11-23 11:28:00,
2013-11-23 05:29:00,12.4,6.6,30.75,NNW,333,2.0,14.0,77,0.00,,,0.00,0,Wunderground v.1.15,2013-11-23 11:29:00,
2013-11-23 05:30:00,12.4,6.6,30.75,North,350,5.0,5.0,77,0.00,,,0.00,0,Wunderground v.1.15,2013-11-23 11:30:00,
2013-11-23 05:32:00,12.3,6.2,30.75,NW,326,4.0,10.0,76,0.00,,,0.00,0,Wunderground v.1.15,2013-11-23 11:32:00,
2013-11-23 05:33:00,12.3,6.5,30.75,NW,317,2.0,11.0,77,0.00,,,0.00,0,Wunderground v.1.15,2013-11-23 11:33:00,
2013-11-23 05:34:00,12.3,6.5,30.75,WNW,298,3.0,11.0,77,0.00,,,0.00,0,Wunderground v.1.15,2013-11-23 11:34:00,
2013-11-23 05:35:00,12.3,6.5,30.75,WNW,298,3.0,11.0,77,0.00,,,0.00,0,Wunderground v.1.15,2013-11-23 11:35:00,
2013-11-23 05:36:00,12.2,6.4,30.75,NNW,338,0.0,11.0,77,0.00,,,0.00,0,Wunderground v.1.15,2013-11-23 11:36:00,
2013-11-23 05:37:00,12.2,6.1,30.75,North,350,1.0,11.0,76,0.00,,,0.00,0,Wunderground v.1.15,2013-11-23 11:37:00,
2013-11-23 05:38:00,12.2,6.1,30.75,NNW,333,0.0,11.0,76,0.00,,,0.00,0,Wunderground v.1.15,2013-11-23 11:38:00,
2013-11-23 05:40:00,12.1,6.0,30.75,NNW,336,1.0,4.0,76,0.00,,,0.00,0,Wunderground v.1.15,2013-11-23 11:40:00,
2013-11-23 05:41:00,12.1,6.0,30.75,NNW,342,3.0,8.0,76,0.00,,,0.00,0,Wunderground v.1.15,2013-11-23 11:41:00,
2013-11-23 05:42:00,12.0,5.9,30.75,NNW,337,4.0,8.0,76,0.00,,,0.00,0,Wunderground v.1.15,2013-11-23 11:42:00,
2013-11-23 05:43:00,12.0,5.9,30.75,NW,317,1.0,8.0,76,0.00,,,0.00,0,Wunderground v.1.15,2013-11-23 11:43:00,
2013-11-23 05:45:00,11.9,6.1,30.75,NNW,331,8.0,8.0,77,0.00,,,0.00,0,Wunderground v.1.15,2013-11-23 11:45:00,
2013-11-23 05:46:00,11.8,6.0,30.75,NW,325,4.0,8.0,77,0.00,,,0.00,0,Wunderground v.1.15,2013-11-23 11:46:00,
2013-11-23 05:47:00,11.8,6.0,30.75,NNW,340,1.0,8.0,77,0.00,,,0.00,0,Wunderground v.1.15,2013-11-23 11:47:00,
2013-11-23 05:48:00,11.8,6.0,30.76,NNW,336,2.0,8.0,77,0.00,,,0.00,0,Wunderground v.1.15,2013-11-23 11:48:00,
2013-11-23 05:51:00,11.7,5.9,30.75,NNW,327,3.0,5.0,77,0.00,,,0.00,0,Wunderground v.1.15,2013-11-23 11:51:00,
2013-11-23 05:52:00,11.6,5.8,30.75,NNW,343,1.0,7.0,77,0.00,,,0.00,0,Wunderground v.1.15,2013-11-23 11:52:00,
2013-11-23 05:54:00,11.6,5.8,30.75,NNW,329,5.0,10.0,77,0.00,,,0.00,0,Wunderground v.1.15,2013-11-23 11:54:00,
2013-11-23 05:56:00,11.5,5.7,30.76,NW,325,6.0,10.0,77,0.00,,,0.00,0,Wunderground v.1.15,2013-11-23 11:56:00,
2013-11-23 05:57:00,11.5,5.7,30.75,North,9,3.0,10.0,77,0.00,,,0.00,0,Wunderground v.1.15,2013-11-23 11:57:00,
2013-11-23 05:59:00,11.4,5.6,30.75,North,355,2.0,11.0,77,0.00,,,0.00,0,Wunderground v.1.15,2013-11-23 11:59:00,
2013-11-23 06:01:00,11.4,5.6,30.76,WNW,302,1.0,9.0,77,0.00,,,0.00,0,Wunderground v.1.15,2013-11-23 12:01:00,
2013-11-23 06:02:00,11.3,5.5,30.76,WNW,288,3.0,9.0,77,0.00,,,0.00,0,Wunderground v.1.15,2013-11-23 12:02:00,
2013-11-23 06:03:00,11.3,5.5,30.76,NNW,344,1.0,9.0,77,0.00,,,0.00,0,Wunderground v.1.15,2013-11-23 12:03:00,
2013-11-23 06:05:00,11.2,5.4,30.76,North,355,0.0,9.0,77,0.00,,,0.00,0,Wunderground v.1.15,2013-11-23 12:05:00,
2013-11-23 06:06:00,11.2,5.4,30.76,North,355,4.0,9.0,77,0.00,,,0.00,0,Wunderground v.1.15,2013-11-23 12:06:00,
2013-11-23 06:07:00,11.1,5.3,30.76,NNW,338,4.0,9.0,77,0.00,,,0.00,0,Wunderground v.1.15,2013-11-23 12:07:00,
2013-11-23 06:08:00,11.1,5.3,30.76,NNW,333,2.0,9.0,77,0.00,,,0.00,0,Wunderground v.1.15,2013-11-23 12:08:00,
2013-11-23 06:09:00,11.0,5.2,30.76,NNW,331,0.0,9.0,77,0.00,,,0.00,0,Wunderground v.1.15,2013-11-23 12:09:00,
2013-11-23 06:10:00,11.0,5.5,30.76,NNW,342,5.0,5.0,78,0.00,,,0.00,0,Wunderground v.1.15,2013-11-23 12:10:00,
2013-11-23 06:11:00,11.0,5.5,30.76,North,349,4.0,7.0,78,0.00,,,0.00,0,Wunderground v.1.15,2013-11-23 12:11:00,
2013-11-23 06:12:00,11.0,5.5,30.76,NNW,344,5.0,7.0,78,0.00,,,0.00,0,Wunderground v.1.15,2013-11-23 12:12:00,
2013-11-23 06:14:00,11.0,5.5,30.76,North,355,6.0,8.0,78,0.00,,,0.00,0,Wunderground v.1.15,2013-11-23 12:14:00,
2013-11-23 06:15:00,10.9,5.4,30.76,NNW,328,5.0,8.0,78,0.00,,,0.00,0,Wunderground v.1.15,2013-11-23 12:15:00,
2013-11-23 06:16:00,10.9,5.4,30.76,NNW,333,7.0,10.0,78,0.00,,,0.00,0,Wunderground v.1.15,2013-11-23 12:16:00,
2013-11-23 06:18:00,10.9,5.4,30.76,North,355,1.0,10.0,78,0.00,,,0.00,0,Wunderground v.1.15,2013-11-23 12:18:00,
2013-11-23 06:19:00,10.9,5.4,30.76,NW,315,2.0,10.0,78,0.00,,,0.00,0,Wunderground v.1.15,2013-11-23 12:19:00,
2013-11-23 06:20:00,10.9,5.4,30.76,NNW,342,5.0,5.0,78,0.00,,,0.00,0,Wunderground v.1.15,2013-11-23 12:20:00,
2013-11-23 06:21:00,10.9,5.4,30.77,NNW,340,4.0,10.0,78,0.00,,,0.00,0,Wunderground v.1.15,2013-11-23 12:21:00,
2013-11-23 06:25:00,10.8,5.3,30.77,WNW,296,6.0,10.0,78,0.00,,,0.00,0,Wunderground v.1.15,2013-11-23 12:25:00,
2013-11-23 06:27:00,10.7,5.2,30.77,NNW,343,3.0,10.0,78,0.00,,,0.00,0,Wunderground v.1.15,2013-11-23 12:27:00,
2013-11-23 06:30:00,10.7,5.2,30.77,NNW,344,4.0,6.0,78,0.00,,,0.00,0,Wunderground v.1.15,2013-11-23 12:30:00,
2013-11-23 06:32:00,10.6,5.4,30.77,North,355,0.0,9.0,79,0.00,,,0.00,0,Wunderground v.1.15,2013-11-23 12:32:00,
2013-11-23 06:35:00,10.5,5.3,30.77,North,360,3.0,9.0,79,0.00,,,0.00,0,Wunderground v.1.15,2013-11-23 12:35:00,
2013-11-23 06:37:00,10.5,5.3,30.77,NW,321,11.0,12.0,79,0.00,,,0.00,0,Wunderground v.1.15,2013-11-23 12:37:00,
2013-11-23 06:38:00,10.5,5.3,30.77,North,355,9.0,12.0,79,0.00,,,0.00,0,Wunderground v.1.15,2013-11-23 12:38:00,
2013-11-23 06:41:00,10.4,5.2,30.77,NW,316,8.0,8.0,79,0.00,,,0.00,0,Wunderground v.1.15,2013-11-23 12:41:00,
2013-11-23 06:42:00,10.4,5.2,30.77,NNW,330,3.0,10.0,79,0.00,,,0.00,0,Wunderground v.1.15,2013-11-23 12:42:00,
2013-11-23 06:43:00,10.4,5.2,30.77,NNE,14,4.0,10.0,79,0.00,,,0.00,0,Wunderground v.1.15,2013-11-23 12:43:00,
2013-11-23 06:46:00,10.3,5.1,30.77,North,360,7.0,11.0,79,0.00,,,0.00,0,Wunderground v.1.15,2013-11-23 12:46:00,
2013-11-23 06:48:00,10.3,5.1,30.77,NW,321,10.0,11.0,79,0.00,,,0.00,0,Wunderground v.1.15,2013-11-23 12:48:00,
2013-11-23 06:49:00,10.2,5.0,30.77,NNW,338,6.0,11.0,79,0.00,,,0.00,0,Wunderground v.1.15,2013-11-23 12:49:00,
2013-11-23 06:51:00,10.2,5.0,30.77,WNW,301,3.0,9.0,79,0.00,,,0.00,0,Wunderground v.1.15,2013-11-23 12:51:00,
2013-11-23 06:53:00,10.2,5.0,30.78,NNW,329,4.0,9.0,79,0.00,,,0.00,0,Wunderground v.1.15,2013-11-23 12:53:00,
2013-11-23 06:54:00,10.1,5.2,30.78,NW,304,1.0,9.0,80,0.00,,,0.00,0,Wunderground v.1.15,2013-11-23 12:54:00,
2013-11-23 06:56:00,10.1,5.2,30.78,NW,311,6.0,12.0,80,0.00,,,0.00,0,Wunderground v.1.15,2013-11-23 12:56:00,
2013-11-23 06:57:00,10.1,5.2,30.78,NNW,342,6.0,12.0,80,0.00,,,0.00,0,Wunderground v.1.15,2013-11-23 12:57:00,
2013-11-23 06:58:00,10.0,4.8,30.78,North,360,12.0,15.0,79,0.00,,,0.00,0,Wunderground v.1.15,2013-11-23 12:58:00,
2013-11-23 06:59:00,10.0,5.1,30.78,NNW,348,5.0,15.0,80,0.00,,,0.00,0,Wunderground v.1.15,2013-11-23 12:59:00,
2013-11-23 07:00:00,10.0,5.1,30.78,NNW,345,0.0,8.0,80,0.00,,,0.00,0,Wunderground v.1.15,2013-11-23 13:00:00,
2013-11-23 07:02:00,10.0,5.1,30.79,NW,318,3.0,8.0,80,0.00,,,0.00,0,Wunderground v.1.15,2013-11-23 13:02:00,
2013-11-23 07:03:00,10.0,5.1,30.79,NNW,337,4.0,8.0,80,0.00,,,0.00,0,Wunderground v.1.15,2013-11-23 13:03:00,
2013-11-23 07:04:00,10.0,5.1,30.79,NW,318,7.0,8.0,80,0.00,,,0.00,0,Wunderground v.1.15,2013-11-23 13:04:00,
2013-11-23 07:05:00,9.9,5.0,30.79,NW,315,6.0,15.0,80,0.00,,,0.00,0,Wunderground v.1.15,2013-11-23 13:05:00,
2013-11-23 07:07:00,9.9,5.0,30.79,NNE,12,6.0,15.0,80,0.00,,,0.00,0,Wunderground v.1.15,2013-11-23 13:07:00,
2013-11-23 07:08:00,9.9,5.0,30.79,NW,326,2.0,15.0,80,0.00,,,0.00,0,Wunderground v.1.15,2013-11-23 13:08:00,
2013-11-23 07:09:00,9.9,5.0,30.80,North,5,0.0,15.0,80,0.00,,,0.00,0,Wunderground v.1.15,2013-11-23 13:09:00,
2013-11-23 07:11:00,9.8,4.9,30.80,NNW,332,0.0,6.0,80,0.00,,,0.00,0,Wunderground v.1.15,2013-11-23 13:11:00,
2013-11-23 07:12:00,9.8,4.9,30.79,North,349,5.0,7.0,80,0.00,,,0.00,0,Wunderground v.1.15,2013-11-23 13:12:00,
2013-11-23 07:14:00,9.7,4.8,30.80,NNW,346,0.0,7.0,80,0.00,,,0.00,5,Wunderground v.1.15,2013-11-23 13:14:00,
2013-11-23 07:16:00,9.6,4.7,30.80,NNW,332,0.0,7.0,80,0.00,,,0.00,5,Wunderground v.1.15,2013-11-23 13:16:00,
2013-11-23 07:17:00,9.6,4.7,30.80,NW,323,6.0,8.0,80,0.00,,,0.00,7,Wunderground v.1.15,2013-11-23 13:17:00,
2013-11-23 07:18:00,9.6,4.7,30.80,North,360,3.0,8.0,80,0.00,,,0.00,7,Wunderground v.1.15,2013-11-23 13:18:00,
2013-11-23 07:20:00,9.5,4.6,30.80,North,10,0.0,3.0,80,0.00,,,0.00,9,Wunderground v.1.15,2013-11-23 13:20:00,
2013-11-23 07:21:00,9.5,4.8,30.80,NNW,330,2.0,6.0,81,0.00,,,0.00,11,Wunderground v.1.15,2013-11-23 13:21:00,
2013-11-23 07:23:00,9.5,4.8,30.80,NNW,344,5.0,6.0,81,0.00,,,0.00,12,Wunderground v.1.15,2013-11-23 13:23:00,
2013-11-23 07:25:00,9.4,4.7,30.81,NNW,343,0.0,10.0,81,0.00,,,0.00,16,Wunderground v.1.15,2013-11-23 13:25:00,
2013-11-23 07:26:00,9.4,4.7,30.81,NW,312,2.0,10.0,81,0.00,,,0.00,16,Wunderground v.1.15,2013-11-23 13:26:00,
2013-11-23 07:27:00,9.4,4.7,30.80,NNW,342,4.0,10.0,81,0.00,,,0.00,14,Wunderground v.1.15,2013-11-23 13:27:00,
2013-11-23 07:28:00,9.4,4.7,30.81,NNW,337,0.0,10.0,81,0.00,,,0.00,14,Wunderground v.1.15,2013-11-23 13:28:00,
2013-11-23 07:30:00,9.3,4.6,30.81,North,5,3.0,7.0,81,0.00,,,0.00,19,Wunderground v.1.15,2013-11-23 13:30:00,
2013-11-23 07:31:00,9.4,4.7,30.81,WNW,300,2.0,7.0,81,0.00,,,0.00,19,Wunderground v.1.15,2013-11-23 13:31:00,
2013-11-23 07:33:00,9.4,4.7,30.81,North,9,5.0,7.0,81,0.00,,,0.00,21,Wunderground v.1.15,2013-11-23 13:33:00,
2013-11-23 07:34:00,9.4,4.7,30.81,NNW,345,6.0,7.0,81,0.00,,,0.00,19,Wunderground v.1.15,2013-11-23 13:34:00,
2013-11-23 07:35:00,9.4,4.7,30.81,NNE,33,7.0,7.0,81,0.00,,,0.00,21,Wunderground v.1.15,2013-11-23 13:35:00,
2013-11-23 07:36:00,9.4,4.7,30.81,North,11,5.0,9.0,81,0.00,,,0.00,21,Wunderground v.1.15,2013-11-23 13:36:00,
2013-11-23 07:38:00,9.4,4.7,30.81,NNW,336,6.0,9.0,81,0.00,,,0.00,21,Wunderground v.1.15,2013-11-23 13:38:00,
2013-11-23 07:39:00,9.4,4.7,30.81,NNW,334,6.0,9.0,81,0.00,,,0.00,21,Wunderground v.1.15,2013-11-23 13:39:00,
2013-11-23 07:40:00,9.3,4.6,30.81,NNW,329,3.0,6.0,81,0.00,,,0.00,25,Wunderground v.1.15,2013-11-23 13:40:00,
2013-11-23 07:42:00,9.3,4.6,30.81,NNW,340,4.0,9.0,81,0.00,,,0.00,23,Wunderground v.1.15,2013-11-23 13:42:00,
2013-11-23 07:43:00,9.3,4.6,30.81,NE,36,6.0,9.0,81,0.00,,,0.00,23,Wunderground v.1.15,2013-11-23 13:43:00,
2013-11-23 07:44:00,9.3,4.6,30.81,NNW,342,1.0,9.0,81,0.00,,,0.00,23,Wunderground v.1.15,2013-11-23 13:44:00,
2013-11-23 07:46:00,9.3,4.6,30.81,NNW,346,5.0,10.0,81,0.00,,,0.00,25,Wunderground v.1.15,2013-11-23 13:46:00,
2013-11-23 07:47:00,9.2,4.6,30.82,NW,325,4.0,10.0,81,0.00,,,0.00,25,Wunderground v.1.15,2013-11-23 13:47:00,
2013-11-23 07:49:00,9.2,4.6,30.82,North,360,4.0,10.0,81,0.00,,,0.00,25,Wunderground v.1.15,2013-11-23 13:49:00,
2013-11-23 07:51:00,9.2,4.6,30.82,NNE,26,6.0,6.0,81,0.00,,,0.00,26,Wunderground v.1.15,2013-11-23 13:51:00,
2013-11-23 07:53:00,9.2,4.6,30.82,NNE,24,3.0,7.0,81,0.00,,,0.00,35,Wunderground v.1.15,2013-11-23 13:53:00,
2013-11-23 07:54:00,9.3,4.6,30.82,North,5,2.0,9.0,81,0.00,,,0.00,37,Wunderground v.1.15,2013-11-23 13:54:00,
2013-11-23 07:55:00,9.2,4.6,30.82,NNW,327,3.0,9.0,81,0.00,,,0.00,39,Wunderground v.1.15,2013-11-23 13:55:00,
2013-11-23 07:56:00,9.2,4.6,30.82,NNW,342,1.0,9.0,81,0.00,,,0.00,62,Wunderground v.1.15,2013-11-23 13:56:00,
2013-11-23 07:58:00,9.2,4.6,30.82,North,355,0.0,9.0,81,0.00,,,0.00,42,Wunderground v.1.15,2013-11-23 13:58:00,
2013-11-23 07:59:00,9.3,4.6,30.82,North,9,3.0,9.0,81,0.00,,,0.00,47,Wunderground v.1.15,2013-11-23 13:59:00,
2013-11-23 08:00:00,9.3,4.6,30.82,NW,319,2.0,3.0,81,0.00,,,0.00,46,Wunderground v.1.15,2013-11-23 14:00:00,
2013-11-23 08:03:00,9.3,4.6,30.82,North,5,1.0,8.0,81,0.00,,,0.00,77,Wunderground v.1.15,2013-11-23 14:03:00,
2013-11-23 08:04:00,9.4,4.7,30.82,NE,46,2.0,8.0,81,0.00,,,0.00,97,Wunderground v.1.15,2013-11-23 14:04:00,
2013-11-23 08:05:00,9.4,4.7,30.82,NNW,332,1.0,8.0,81,0.00,,,0.00,127,Wunderground v.1.15,2013-11-23 14:05:00,
2013-11-23 08:08:00,9.6,4.9,30.83,NNW,331,6.0,8.0,81,0.00,,,0.00,90,Wunderground v.1.15,2013-11-23 14:08:00,
2013-11-23 08:09:00,9.6,4.9,30.83,NNW,341,0.0,8.0,81,0.00,,,0.00,142,Wunderground v.1.15,2013-11-23 14:09:00,
2013-11-23 08:10:00,9.7,5.0,30.83,NNW,338,6.0,6.0,81,0.00,,,0.00,146,Wunderground v.1.15,2013-11-23 14:10:00,
2013-11-23 08:13:00,9.9,5.2,30.83,North,5,3.0,9.0,81,0.00,,,0.00,120,Wunderground v.1.15,2013-11-23 14:13:00,
2013-11-23 08:14:00,9.9,5.2,30.83,NW,313,2.0,9.0,81,0.00,,,0.00,128,Wunderground v.1.15,2013-11-23 14:14:00,
2013-11-23 08:15:00,9.9,5.2,30.83,NW,323,4.0,9.0,81,0.00,,,0.00,128,Wunderground v.1.15,2013-11-23 14:15:00,
2013-11-23 08:19:00,9.9,5.2,30.83,NNW,345,3.0,9.0,81,0.00,,,0.00,162,Wunderground v.1.15,2013-11-23 14:19:00,
2013-11-23 08:20:00,9.9,5.2,30.83,NNW,333,3.0,7.0,81,0.00,,,0.00,172,Wunderground v.1.15,2013-11-23 14:20:00,
2013-11-23 08:21:00,10.0,5.3,30.83,NW,326,2.0,7.0,81,0.00,,,0.00,176,Wunderground v.1.15,2013-11-23 14:21:00,
2013-11-23 08:24:00,10.2,5.5,30.83,NNE,26,3.0,10.0,81,0.00,,,0.00,171,Wunderground v.1.15,2013-11-23 14:24:00,
2013-11-23 08:25:00,10.2,5.3,30.83,NW,324,2.0,11.0,80,0.00,,,0.00,192,Wunderground v.1.15,2013-11-23 14:25:00,
2013-11-23 08:26:00,10.2,5.3,30.83,NE,42,1.0,11.0,80,0.00,,,0.00,190,Wunderground v.1.15,2013-11-23 14:26:00,
2013-11-23 08:30:00,10.4,5.5,30.83,NW,309,5.0,6.0,80,0.00,,,0.00,209,Wunderground v.1.15,2013-11-23 14:30:00,
2013-11-23 08:31:00,10.4,5.5,30.83,North,355,7.0,9.0,80,0.00,,,0.00,214,Wunderground v.1.15,2013-11-23 14:31:00,
2013-11-23 08:35:00,10.7,5.7,30.84,NNE,26,3.0,12.0,80,0.00,,,0.00,230,Wunderground v.1.15,2013-11-23 14:35:00,
2013-11-23 08:36:00,10.7,5.7,30.83,NNW,348,2.0,12.0,80,0.00,,,0.00,237,Wunderground v.1.15,2013-11-23 14:36:00,
2013-11-23 08:40:00,10.8,5.6,30.84,North,355,5.0,5.0,79,0.00,,,0.00,246,Wunderground v.1.15,2013-11-23 14:40:00,
2013-11-23 08:41:00,10.9,5.7,30.84,NNW,342,3.0,5.0,79,0.00,,,0.00,250,Wunderground v.1.15,2013-11-23 14:41:00,
2013-11-23 08:42:00,10.9,5.7,30.84,NNW,342,3.0,5.0,79,0.00,,,0.00,250,Wunderground v.1.15,2013-11-23 14:42:00,
2013-11-23 08:45:00,11.1,5.9,30.84,ENE,64,8.0,8.0,79,0.00,,,0.00,262,Wunderground v.1.15,2013-11-23 14:45:00,
2013-11-23 08:46:00,11.2,6.0,30.84,NNE,13,2.0,14.0,79,0.00,,,0.00,264,Wunderground v.1.15,2013-11-23 14:46:00,
2013-11-23 08:47:00,11.2,6.0,30.84,NNE,29,5.0,14.0,79,0.00,,,0.00,265,Wunderground v.1.15,2013-11-23 14:47:00,
2013-11-23 08:50:00,11.2,5.7,30.84,North,355,2.0,8.0,78,0.00,,,0.00,274,Wunderground v.1.15,2013-11-23 14:50:00,
2013-11-23 08:51:00,11.2,5.7,30.84,North,360,3.0,8.0,78,0.00,,,0.00,278,Wunderground v.1.15,2013-11-23 14:51:00,
2013-11-23 08:52:00,11.2,5.7,30.84,North,355,0.0,8.0,78,0.00,,,0.00,279,Wunderground v.1.15,2013-11-23 14:52:00,
2013-11-23 08:55:00,11.4,5.9,30.84,NW,316,4.0,10.0,78,0.00,,,0.00,287,Wunderground v.1.15,2013-11-23 14:55:00,
2013-11-23 08:56:00,11.4,5.9,30.84,NNW,336,3.0,10.0,78,0.00,,,0.00,288,Wunderground v.1.15,2013-11-23 14:56:00,
2013-11-23 08:57:00,11.5,6.0,30.84,NNE,26,9.0,11.0,78,0.00,,,0.00,290,Wunderground v.1.15,2013-11-23 14:57:00,
2013-11-23 08:58:00,11.5,6.0,30.84,NW,310,5.0,11.0,78,0.00,,,0.00,294,Wunderground v.1.15,2013-11-23 14:58:00,
2013-11-23 09:01:00,11.5,6.0,30.84,NNW,344,3.0,4.0,78,0.00,,,0.00,302,Wunderground v.1.15,2013-11-23 15:01:00,
2013-11-23 09:02:00,11.6,6.1,30.84,NW,325,4.0,11.0,78,0.00,,,0.00,306,Wunderground v.1.15,2013-11-23 15:02:00,
2013-11-23 09:03:00,11.5,6.0,30.85,North,349,5.0,11.0,78,0.00,,,0.00,308,Wunderground v.1.15,2013-11-23 15:03:00,
2013-11-23 09:06:00,11.4,5.9,30.85,NNW,333,2.0,12.0,78,0.00,,,0.00,315,Wunderground v.1.15,2013-11-23 15:06:00,
2013-11-23 09:07:00,11.4,6.2,30.85,NNW,340,6.0,12.0,79,0.00,,,0.00,315,Wunderground v.1.15,2013-11-23 15:07:00,
2013-11-23 09:08:00,11.5,6.2,30.85,North,360,4.0,12.0,79,0.00,,,0.00,316,Wunderground v.1.15,2013-11-23 15:08:00,
2013-11-23 09:11:00,11.7,6.2,30.85,NNE,17,4.0,8.0,78,0.00,,,0.00,320,Wunderground v.1.15,2013-11-23 15:11:00,
2013-11-23 09:12:00,11.7,6.2,30.85,NW,325,3.0,8.0,78,0.00,,,0.00,322,Wunderground v.1.15,2013-11-23 15:12:00,
2013-11-23 09:14:00,11.6,6.1,30.85,NW,317,6.0,13.0,78,0.00,,,0.00,325,Wunderground v.1.15,2013-11-23 15:14:00,
2013-11-23 09:16:00,11.7,6.2,30.85,North,355,5.0,13.0,78,0.00,,,0.00,329,Wunderground v.1.15,2013-11-23 15:16:00,
2013-11-23 09:17:00,11.7,6.2,30.85,NNE,15,0.0,13.0,78,0.00,,,0.00,329,Wunderground v.1.15,2013-11-23 15:17:00,
2013-11-23 09:19:00,11.7,6.2,30.86,North,360,7.0,13.0,78,0.00,,,0.00,336,Wunderground v.1.15,2013-11-23 15:19:00,
2013-11-23 09:20:00,11.7,6.2,30.86,NW,313,11.0,13.0,78,0.00,,,0.00,336,Wunderground v.1.15,2013-11-23 15:20:00,
2013-11-23 09:21:00,11.6,6.1,30.86,NW,325,6.0,14.0,78,0.00,,,0.00,338,Wunderground v.1.15,2013-11-23 15:21:00,
2013-11-23 09:22:00,11.5,6.0,30.86,NNW,344,2.0,14.0,78,0.00,,,0.00,339,Wunderground v.1.15,2013-11-23 15:22:00,
2013-11-23 09:24:00,11.6,6.3,30.86,North,11,3.0,14.0,79,0.00,,,0.00,345,Wunderground v.1.15,2013-11-23 15:24:00,
2013-11-23 09:25:00,11.6,6.1,30.85,NW,320,5.0,14.0,78,0.00,,,0.00,346,Wunderground v.1.15,2013-11-23 15:25:00,
2013-11-23 09:26:00,11.5,6.0,30.85,WNW,300,5.0,14.0,78,0.00,,,0.00,348,Wunderground v.1.15,2013-11-23 15:26:00,
2013-11-23 09:27:00,11.5,6.0,30.85,NNW,331,4.0,14.0,78,0.00,,,0.00,350,Wunderground v.1.15,2013-11-23 15:27:00,
2013-11-23 09:30:00,11.5,6.0,30.86,NNW,336,5.0,14.0,78,0.00,,,0.00,355,Wunderground v.1.15,2013-11-23 15:30:00,
2013-11-23 09:31:00,11.7,6.4,30.86,NNW,346,1.0,9.0,79,0.00,,,0.00,359,Wunderground v.1.15,2013-11-23 15:31:00,
2013-11-23 09:32:00,11.8,6.5,30.86,NW,309,7.0,9.0,79,0.00,,,0.00,362,Wunderground v.1.15,2013-11-23 15:32:00,
2013-11-23 09:33:00,11.8,6.5,30.86,NNW,338,2.0,9.0,79,0.00,,,0.00,362,Wunderground v.1.15,2013-11-23 15:33:00,
2013-11-23 09:35:00,11.8,6.3,30.86,NW,325,8.0,12.0,78,0.00,,,0.00,364,Wunderground v.1.15,2013-11-23 15:35:00,
2013-11-23 09:37:00,11.7,6.2,30.86,NNW,336,4.0,13.0,78,0.00,,,0.00,367,Wunderground v.1.15,2013-11-23 15:37:00,
2013-11-23 09:38:00,11.7,6.2,30.86,NW,319,5.0,13.0,78,0.00,,,0.00,369,Wunderground v.1.15,2013-11-23 15:38:00,
2013-11-23 09:40:00,11.7,6.2,30.86,NW,315,5.0,9.0,78,0.00,,,0.00,374,Wunderground v.1.15,2013-11-23 15:40:00,
2013-11-23 09:42:00,11.6,6.1,30.86,NW,323,5.0,9.0,78,0.00,,,0.00,380,Wunderground v.1.15,2013-11-23 15:42:00,
2013-11-23 09:43:00,11.7,6.2,30.86,NNW,336,4.0,9.0,78,0.00,,,0.00,383,Wunderground v.1.15,2013-11-23 15:43:00,
2013-11-23 09:45:00,11.7,6.4,30.86,NNW,336,3.0,10.0,79,0.00,,,0.00,385,Wunderground v.1.15,2013-11-23 15:45:00,
2013-11-23 09:47:00,11.8,6.5,30.86,NW,318,12.0,12.0,79,0.00,,,0.00,390,Wunderground v.1.15,2013-11-23 15:47:00,
2013-11-23 09:48:00,11.8,6.5,30.86,NNW,348,3.0,14.0,79,0.00,,,0.00,388,Wunderground v.1.15,2013-11-23 15:48:00,
2013-11-23 09:49:00,11.7,6.2,30.86,NNW,327,8.0,14.0,78,0.00,,,0.00,399,Wunderground v.1.15,2013-11-23 15:49:00,
2013-11-23 09:50:00,11.7,6.2,30.86,NW,325,7.0,9.0,78,0.00,,,0.00,396,Wunderground v.1.15,2013-11-23 15:50:00,
2013-11-23 09:52:00,11.6,6.1,30.86,NNW,341,6.0,13.0,78,0.00,,,0.00,401,Wunderground v.1.15,2013-11-23 15:52:00,
2013-11-23 09:53:00,11.6,6.3,30.86,NNW,336,6.0,13.0,79,0.00,,,0.00,401,Wunderground v.1.15,2013-11-23 15:53:00,
2013-11-23 09:55:00,11.7,6.4,30.86,NW,316,11.0,13.0,79,0.00,,,0.00,403,Wunderground v.1.15,2013-11-23 15:55:00,
2013-11-23 09:57:00,11.8,6.5,30.87,NW,326,4.0,13.0,79,0.00,,,0.00,404,Wunderground v.1.15,2013-11-23 15:57:00,
2013-11-23 09:58:00,11.8,6.5,30.87,NNW,334,8.0,13.0,79,0.00,,,0.00,404,Wunderground v.1.15,2013-11-23 15:58:00,
2013-11-23 09:59:00,11.8,6.5,30.87,West,280,6.0,13.0,79,0.00,,,0.00,406,Wunderground v.1.15,2013-11-23 15:59:00,
2013-11-23 10:00:00,11.7,6.4,30.87,NNW,341,1.0,5.0,79,0.00,,,0.00,406,Wunderground v.1.15,2013-11-23 16:00:00,
2013-11-23 10:01:00,11.8,6.5,30.87,North,5,1.0,5.0,79,0.00,,,0.00,406,Wunderground v.1.15,2013-11-23 16:01:00,
2013-11-23 10:02:00,11.9,6.6,30.87,NNW,347,3.0,6.0,79,0.00,,,0.00,415,Wunderground v.1.15,2013-11-23 16:02:00,
2013-11-23 10:03:00,12.0,6.7,30.86,NW,319,7.0,7.0,79,0.00,,,0.00,415,Wunderground v.1.15,2013-11-23 16:03:00,
2013-11-23 10:04:00,12.1,6.8,30.87,NW,309,4.0,8.0,79,0.00,,,0.00,417,Wunderground v.1.15,2013-11-23 16:04:00,
2013-11-23 10:05:00,12.1,6.8,30.87,NW,319,4.0,8.0,79,0.00,,,0.00,418,Wunderground v.1.15,2013-11-23 16:05:00,
2013-11-23 10:06:00,12.1,6.8,30.87,NNW,338,5.0,8.0,79,0.00,,,0.00,418,Wunderground v.1.15,2013-11-23 16:06:00,
2013-11-23 10:07:00,12.1,6.8,30.86,NW,321,7.0,9.0,79,0.00,,,0.00,420,Wunderground v.1.15,2013-11-23 16:07:00,
2013-11-23 10:08:00,12.1,6.8,30.87,NNW,327,3.0,10.0,79,0.00,,,0.00,425,Wunderground v.1.15,2013-11-23 16:08:00,
2013-11-23 10:09:00,12.2,6.9,30.87,NW,311,14.0,14.0,79,0.00,,,0.00,425,Wunderground v.1.15,2013-11-23 16:09:00,
2013-11-23 10:10:00,12.1,6.8,30.87,NW,325,3.0,5.0,79,0.00,,,0.00,429,Wunderground v.1.15,2013-11-23 16:10:00,
2013-11-23 10:11:00,12.1,6.8,30.87,NW,325,8.0,12.0,79,0.00,,,0.00,427,Wunderground v.1.15,2013-11-23 16:11:00,
2013-11-23 10:12:00,12.1,6.8,30.87,NNW,344,7.0,12.0,79,0.00,,,0.00,427,Wunderground v.1.15,2013-11-23 16:12:00,
2013-11-23 10:13:00,12.1,6.8,30.87,NW,319,7.0,12.0,79,0.00,,,0.00,429,Wunderground v.1.15,2013-11-23 16:13:00,
2013-11-23 10:14:00,12.2,7.2,30.87,NE,37,7.0,12.0,80,0.00,,,0.00,434,Wunderground v.1.15,2013-11-23 16:14:00,
2013-11-23 10:15:00,12.2,7.2,30.87,WNW,300,5.0,12.0,80,0.00,,,0.00,434,Wunderground v.1.15,2013-11-23 16:15:00,
2013-11-23 10:16:00,12.3,7.0,30.87,NNE,13,1.0,12.0,79,0.00,,,0.00,438,Wunderground v.1.15,2013-11-23 16:16:00,
2013-11-23 10:17:00,12.5,7.2,30.87,North,360,3.0,12.0,79,0.00,,,0.00,432,Wunderground v.1.15,2013-11-23 16:17:00,
2013-11-23 10:18:00,12.7,7.1,30.87,NNW,327,1.0,12.0,78,0.00,,,0.00,439,Wunderground v.1.15,2013-11-23 16:18:00,
2013-11-23 10:19:00,12.7,7.1,30.87,NW,323,3.0,12.0,78,0.00,,,0.00,445,Wunderground v.1.15,2013-11-23 16:19:00,
2013-11-23 10:20:00,12.8,7.2,30.87,WNW,301,4.0,5.0,78,0.00,,,0.00,445,Wunderground v.1.15,2013-11-23 16:20:00,
2013-11-23 10:21:00,12.9,7.3,30.87,NNW,348,4.0,7.0,78,0.00,,,0.00,446,Wunderground v.1.15,2013-11-23 16:21:00,
2013-11-23 10:22:00,13.0,7.4,30.87,North,360,7.0,8.0,78,0.00,,,0.00,445,Wunderground v.1.15,2013-11-23 16:22:00,
2013-11-23 10:23:00,13.0,7.7,30.87,NW,323,6.0,8.0,79,0.00,,,0.00,445,Wunderground v.1.15,2013-11-23 16:23:00,
2013-11-23 10:24:00,13.0,7.4,30.87,NE,37,2.0,10.0,78,0.00,,,0.00,441,Wunderground v.1.15,2013-11-23 16:24:00,
2013-11-23 10:26:00,12.9,7.3,30.87,WNW,297,6.0,10.0,78,0.00,,,0.00,455,Wunderground v.1.15,2013-11-23 16:26:00,
2013-11-23 10:28:00,12.7,6.9,30.87,NW,322,3.0,10.0,77,0.00,,,0.00,462,Wunderground v.1.15,2013-11-23 16:28:00,
2013-11-23 10:31:00,12.8,7.2,30.87,NNW,327,6.0,8.0,78,0.00,,,0.00,487,Wunderground v.1.15,2013-11-23 16:31:00,
2013-11-23 10:32:00,13.1,7.8,30.87,NNW,342,4.0,8.0,79,0.00,,,0.00,524,Wunderground v.1.15,2013-11-23 16:32:00,
2013-11-23 10:33:00,13.1,7.8,30.87,NW,319,5.0,8.0,79,0.00,,,0.00,536,Wunderground v.1.15,2013-11-23 16:33:00,
2013-11-23 10:36:00,13.0,7.7,30.87,NW,320,11.0,14.0,79,0.00,,,0.00,478,Wunderground v.1.15,2013-11-23 16:36:00,
2013-11-23 10:37:00,12.8,7.5,30.87,NW,319,9.0,14.0,79,0.00,,,0.00,478,Wunderground v.1.15,2013-11-23 16:37:00,
2013-11-23 10:39:00,12.6,7.3,30.87,WNW,300,12.0,14.0,79,0.00,,,0.00,545,Wunderground v.1.15,2013-11-23 16:39:00,
2013-11-23 10:41:00,12.5,7.5,30.87,NW,317,7.0,12.0,80,0.00,,,0.00,207,Wunderground v.1.15,2013-11-23 16:41:00,
2013-11-23 10:42:00,12.5,7.5,30.87,NW,313,11.0,15.0,80,0.00,,,0.00,214,Wunderground v.1.15,2013-11-23 16:42:00,
2013-11-23 10:43:00,12.5,7.5,30.87,NW,313,10.0,15.0,80,0.00,,,0.00,214,Wunderground v.1.15,2013-11-23 16:43:00,
2013-11-23 10:44:00,12.4,7.4,30.87,NW,313,8.0,15.0,80,0.00,,,0.00,214,Wunderground v.1.15,2013-11-23 16:44:00,
2013-11-23 10:46:00,12.4,7.4,30.87,NW,315,7.0,15.0,80,0.00,,,0.00,568,Wunderground v.1.15,2013-11-23 16:46:00,
2013-11-23 10:48:00,12.6,7.6,30.86,NNW,329,0.0,15.0,80,0.00,,,0.00,568,Wunderground v.1.15,2013-11-23 16:48:00,
2013-11-23 10:49:00,13.0,8.3,30.86,NNW,331,4.0,15.0,81,0.00,,,0.00,536,Wunderground v.1.15,2013-11-23 16:49:00,
2013-11-23 10:51:00,13.4,8.4,30.86,NW,323,5.0,11.0,80,0.00,,,0.00,496,Wunderground v.1.15,2013-11-23 16:51:00,
2013-11-23 10:53:00,13.4,8.4,30.86,NNW,336,2.0,11.0,80,0.00,,,0.00,496,Wunderground v.1.15,2013-11-23 16:53:00,
2013-11-23 10:54:00,13.4,8.4,30.86,NW,319,1.0,11.0,80,0.00,,,0.00,178,Wunderground v.1.15,2013-11-23 16:54:00,
2013-11-23 10:56:00,13.1,7.8,30.86,NW,319,12.0,12.0,79,0.00,,,0.00,213,Wunderground v.1.15,2013-11-23 16:56:00,
2013-11-23 10:58:00,13.0,7.7,30.86,NW,321,9.0,14.0,79,0.00,,,0.00,213,Wunderground v.1.15,2013-11-23 16:58:00,
2013-11-23 10:59:00,13.0,7.7,30.86,NW,320,10.0,14.0,79,0.00,,,0.00,520,Wunderground v.1.15,2013-11-23 16:59:00,
2013-11-23 11:00:00,13.0,7.7,30.86,NNW,342,3.0,9.0,79,0.00,,,0.00,533,Wunderground v.1.15,2013-11-23 17:00:00,
2013-11-23 11:02:00,13.1,8.1,30.86,NW,326,3.0,9.0,80,0.00,,,0.00,533,Wunderground v.1.15,2013-11-23 17:02:00,
2013-11-23 11:03:00,13.0,7.7,30.86,NW,318,11.0,12.0,79,0.00,,,0.00,527,Wunderground v.1.15,2013-11-23 17:03:00,
2013-11-23 11:04:00,13.1,7.8,30.86,NW,316,6.0,12.0,79,0.00,,,0.00,520,Wunderground v.1.15,2013-11-23 17:04:00,
2013-11-23 11:05:00,13.4,8.4,30.86,NW,313,2.0,12.0,80,0.00,,,0.00,524,Wunderground v.1.15,2013-11-23 17:05:00,
2013-11-23 11:07:00,13.7,8.4,30.86,NW,321,6.0,12.0,79,0.00,,,0.00,506,Wunderground v.1.15,2013-11-23 17:07:00,
2013-11-23 11:08:00,13.9,8.6,30.86,NW,325,6.0,12.0,79,0.00,,,0.00,510,Wunderground v.1.15,2013-11-23 17:08:00,
2013-11-23 11:09:00,13.9,8.3,30.86,NNW,339,2.0,12.0,78,0.00,,,0.00,513,Wunderground v.1.15,2013-11-23 17:09:00,
2013-11-23 11:10:00,14.0,8.7,30.86,NW,314,6.0,6.0,79,0.00,,,0.00,513,Wunderground v.1.15,2013-11-23 17:10:00,
2013-11-23 11:11:00,14.0,8.4,30.86,NNW,340,2.0,7.0,78,0.00,,,0.00,513,Wunderground v.1.15,2013-11-23 17:11:00,
2013-11-23 11:12:00,14.1,8.8,30.86,NW,317,10.0,13.0,79,0.00,,,0.00,557,Wunderground v.1.15,2013-11-23 17:12:00,
2013-11-23 11:14:00,14.1,8.8,30.86,NW,316,11.0,14.0,79,0.00,,,0.00,557,Wunderground v.1.15,2013-11-23 17:14:00,
2013-11-23 11:15:00,14.0,8.7,30.86,NW,312,11.0,14.0,79,0.00,,,0.00,557,Wunderground v.1.15,2013-11-23 17:15:00,
2013-11-23 11:16:00,13.8,8.2,30.86,NW,313,8.0,14.0,78,0.00,,,0.00,534,Wunderground v.1.15,2013-11-23 17:16:00,
2013-11-23 11:17:00,13.9,8.6,30.86,NNW,331,3.0,14.0,79,0.00,,,0.00,547,Wunderground v.1.15,2013-11-23 17:17:00,
2013-11-23 11:19:00,14.1,8.8,30.86,NW,325,6.0,14.0,79,0.00,,,0.00,547,Wunderground v.1.15,2013-11-23 17:19:00,
2013-11-23 11:20:00,14.0,8.4,30.86,NW,318,5.0,7.0,78,0.00,,,0.00,547,Wunderground v.1.15,2013-11-23 17:20:00,
2013-11-23 11:21:00,14.0,8.4,30.86,NW,323,2.0,9.0,78,0.00,,,0.00,540,Wunderground v.1.15,2013-11-23 17:21:00,
2013-11-23 11:22:00,14.0,8.4,30.86,NW,323,1.0,9.0,78,0.00,,,0.00,540,Wunderground v.1.15,2013-11-23 17:22:00,
2013-11-23 11:23:00,14.0,8.4,30.86,NNE,20,1.0,9.0,78,0.00,,,0.00,513,Wunderground v.1.15,2013-11-23 17:23:00,
2013-11-23 11:24:00,14.3,8.7,30.86,NNE,21,1.0,9.0,78,0.00,,,0.00,534,Wunderground v.1.15,2013-11-23 17:24:00,
2013-11-23 11:26:00,14.5,8.6,30.85,NW,317,7.0,10.0,77,0.00,,,0.00,545,Wunderground v.1.15,2013-11-23 17:26:00,
2013-11-23 11:27:00,14.5,8.6,30.86,North,9,5.0,15.0,77,0.00,,,0.00,545,Wunderground v.1.15,2013-11-23 17:27:00,
2013-11-23 11:28:00,14.4,8.2,30.86,North,349,1.0,15.0,76,0.00,,,0.00,545,Wunderground v.1.15,2013-11-23 17:28:00,
2013-11-23 11:30:00,14.5,8.3,30.85,NNE,22,5.0,5.0,76,0.00,,,0.00,538,Wunderground v.1.15,2013-11-23 17:30:00,
2013-11-23 11:31:00,14.6,8.4,30.86,NNW,327,7.0,7.0,76,0.00,,,0.00,526,Wunderground v.1.15,2013-11-23 17:31:00,
2013-11-23 11:32:00,14.7,8.8,30.86,NW,309,11.0,13.0,77,0.00,,,0.00,526,Wunderground v.1.15,2013-11-23 17:32:00,
2013-11-23 11:33:00,14.6,8.7,30.86,NW,317,10.0,14.0,77,0.00,,,0.00,526,Wunderground v.1.15,2013-11-23 17:33:00,
2013-11-23 11:35:00,14.5,8.6,30.86,NW,319,13.0,15.0,77,0.00,,,0.00,526,Wunderground v.1.15,2013-11-23 17:35:00,
2013-11-23 11:36:00,14.4,8.5,30.85,NW,320,8.0,15.0,77,0.00,,,0.00,554,Wunderground v.1.15,2013-11-23 17:36:00,
2013-11-23 11:37:00,14.4,8.5,30.86,NNW,336,7.0,15.0,77,0.00,,,0.00,555,Wunderground v.1.15,2013-11-23 17:37:00,
2013-11-23 11:38:00,14.4,8.5,30.85,NNW,328,5.0,15.0,77,0.00,,,0.00,566,Wunderground v.1.15,2013-11-23 17:38:00,
2013-11-23 11:40:00,14.4,8.8,30.86,NW,313,7.0,10.0,78,0.00,,,0.00,538,Wunderground v.1.15,2013-11-23 17:40:00,
2013-11-23 11:42:00,14.5,8.9,30.85,NW,325,9.0,10.0,78,0.00,,,0.00,536,Wunderground v.1.15,2013-11-23 17:42:00,
2013-11-23 11:43:00,14.6,9.0,30.86,NW,317,4.0,12.0,78,0.00,,,0.00,534,Wunderground v.1.15,2013-11-23 17:43:00,
2013-11-23 11:44:00,14.6,9.0,30.85,NNW,335,5.0,12.0,78,0.00,,,0.00,538,Wunderground v.1.15,2013-11-23 17:44:00,
2013-11-23 11:45:00,14.6,8.7,30.85,NNW,332,6.0,12.0,77,0.00,,,0.00,541,Wunderground v.1.15,2013-11-23 17:45:00,
2013-11-23 11:47:00,14.6,8.7,30.86,NNE,15,2.0,15.0,77,0.00,,,0.00,534,Wunderground v.1.15,2013-11-23 17:47:00,
2013-11-23 11:48:00,14.7,8.8,30.86,North,360,5.0,15.0,77,0.00,,,0.00,531,Wunderground v.1.15,2013-11-23 17:48:00,
2013-11-23 11:49:00,14.7,8.8,30.86,NNW,327,1.0,15.0,77,0.00,,,0.00,531,Wunderground v.1.15,2013-11-23 17:49:00,
2013-11-23 11:51:00,14.8,8.6,30.85,North,9,1.0,7.0,76,0.00,,,0.00,534,Wunderground v.1.15,2013-11-23 17:51:00,
2013-11-23 11:53:00,14.9,8.7,30.85,NW,319,7.0,7.0,76,0.00,,,0.00,536,Wunderground v.1.15,2013-11-23 17:53:00,
2013-11-23 11:54:00,15.0,8.8,30.85,NNW,328,1.0,8.0,76,0.00,,,0.00,499,Wunderground v.1.15,2013-11-23 17:54:00,
2013-11-23 11:56:00,15.1,8.9,30.85,NW,313,12.0,12.0,76,0.00,,,0.00,534,Wunderground v.1.15,2013-11-23 17:56:00,
2013-11-23 11:58:00,15.1,8.9,30.85,NNW,342,3.0,12.0,76,0.00,,,0.00,533,Wunderground v.1.15,2013-11-23 17:58:00,
2013-11-23 11:59:00,15.2,9.0,30.85,NNW,337,3.0,12.0,76,0.00,,,0.00,540,Wunderground v.1.15,2013-11-23 17:59:00,
2013-11-23 12:00:00,15.2,9.0,30.85,NW,308,12.0,12.0,76,0.00,,,0.00,527,Wunderground v.1.15,2013-11-23 18:00:00,
2013-11-23 12:01:00,15.4,9.5,30.85,NNW,335,3.0,17.0,77,0.00,,,0.00,524,Wunderground v.1.15,2013-11-23 18:01:00,
2013-11-23 12:03:00,15.4,9.5,30.85,NNE,18,3.0,17.0,77,0.00,,,0.00,526,Wunderground v.1.15,2013-11-23 18:03:00,
2013-11-23 12:04:00,15.3,9.1,30.85,North,355,4.0,17.0,76,0.00,,,0.00,526,Wunderground v.1.15,2013-11-23 18:04:00,
2013-11-23 12:05:00,15.3,9.1,30.85,NW,323,8.0,17.0,76,0.00,,,0.00,526,Wunderground v.1.15,2013-11-23 18:05:00,
2013-11-23 12:07:00,15.3,9.1,30.85,NNW,330,5.0,17.0,76,0.00,,,0.00,526,Wunderground v.1.15,2013-11-23 18:07:00,
2013-11-23 12:08:00,15.3,8.8,30.85,North,360,2.0,17.0,75,0.00,,,0.00,526,Wunderground v.1.15,2013-11-23 18:08:00,
2013-11-23 12:09:00,15.4,9.2,30.85,NW,319,6.0,17.0,76,0.00,,,0.00,526,Wunderground v.1.15,2013-11-23 18:09:00,
2013-11-23 12:10:00,15.4,9.2,30.85,NNW,327,7.0,13.0,76,0.00,,,0.00,526,Wunderground v.1.15,2013-11-23 18:10:00,
2013-11-23 12:12:00,15.4,9.2,30.85,NW,324,14.0,14.0,76,0.00,,,0.00,524,Wunderground v.1.15,2013-11-23 18:12:00,
2013-11-23 12:13:00,15.3,9.1,30.85,NW,319,12.0,14.0,76,0.00,,,0.00,524,Wunderground v.1.15,2013-11-23 18:13:00,
2013-11-23 12:14:00,15.3,8.8,30.85,NNW,342,1.0,14.0,75,0.00,,,0.00,522,Wunderground v.1.15,2013-11-23 18:14:00,
2013-11-23 12:15:00,15.4,9.2,30.85,NW,316,5.0,14.0,76,0.00,,,0.00,524,Wunderground v.1.15,2013-11-23 18:15:00,
2013-11-23 12:18:00,15.5,9.3,30.85,NNW,336,5.0,14.0,76,0.00,,,0.00,520,Wunderground v.1.15,2013-11-23 18:18:00,
2013-11-23 12:19:00,15.5,9.0,30.85,NNW,329,7.0,14.0,75,0.00,,,0.00,524,Wunderground v.1.15,2013-11-23 18:19:00,
2013-11-23 12:21:00,15.6,9.1,30.85,NNW,330,2.0,6.0,75,0.00,,,0.00,522,Wunderground v.1.15,2013-11-23 18:21:00,
2013-11-23 12:23:00,15.9,9.7,30.85,NNW,338,3.0,8.0,76,0.00,,,0.00,520,Wunderground v.1.15,2013-11-23 18:23:00,
2013-11-23 12:24:00,15.9,9.7,30.85,NNW,331,8.0,12.0,76,0.00,,,0.00,515,Wunderground v.1.15,2013-11-23 18:24:00,
2013-11-23 12:25:00,16.0,9.8,30.85,NE,43,5.0,12.0,76,0.00,,,0.00,515,Wunderground v.1.15,2013-11-23 18:25:00,
2013-11-23 12:26:00,16.1,9.6,30.85,NW,307,4.0,12.0,75,0.00,,,0.00,519,Wunderground v.1.15,2013-11-23 18:26:00,
2013-11-23 12:29:00,16.1,9.6,30.85,NNW,329,4.0,12.0,75,0.00,,,0.00,515,Wunderground v.1.15,2013-11-23 18:29:00,
2013-11-23 12:30:00,16.1,9.6,30.85,NNW,332,3.0,5.0,75,0.00,,,0.00,517,Wunderground v.1.15,2013-11-23 18:30:00,
2013-11-23 12:32:00,15.9,9.4,30.85,NNW,331,8.0,12.0,75,0.00,,,0.00,515,Wunderground v.1.15,2013-11-23 18:32:00,
2013-11-23 12:34:00,15.7,9.2,30.85,NW,325,6.0,13.0,75,0.00,,,0.00,515,Wunderground v.1.15,2013-11-23 18:34:00,
2013-11-23 12:35:00,15.7,9.2,30.85,NW,320,2.0,13.0,75,0.00,,,0.00,515,Wunderground v.1.15,2013-11-23 18:35:00,
2013-11-23 12:37:00,15.7,9.5,30.85,NNW,344,6.0,13.0,76,0.00,,,0.00,517,Wunderground v.1.15,2013-11-23 18:37:00,
2013-11-23 12:39:00,15.7,9.5,30.85,NW,319,8.0,13.0,76,0.00,,,0.00,513,Wunderground v.1.15,2013-11-23 18:39:00,
2013-11-23 12:40:00,15.7,9.5,30.85,NW,319,8.0,10.0,76,0.00,,,0.00,512,Wunderground v.1.15,2013-11-23 18:40:00,
2013-11-23 12:42:00,15.7,9.5,30.85,North,355,3.0,11.0,76,0.00,,,0.00,512,Wunderground v.1.15,2013-11-23 18:42:00,
2013-11-23 12:44:00,15.9,9.7,30.85,North,355,4.0,11.0,76,0.00,,,0.00,508,Wunderground v.1.15,2013-11-23 18:44:00,
2013-11-23 12:45:00,16.2,10.3,30.85,NW,326,8.0,11.0,77,0.00,,,0.00,506,Wunderground v.1.15,2013-11-23 18:45:00,
2013-11-23 12:46:00,16.2,10.3,30.85,WNW,301,10.0,11.0,77,0.00,,,0.00,504,Wunderground v.1.15,2013-11-23 18:46:00,
2013-11-23 12:47:00,16.1,9.6,30.85,NW,311,4.0,15.0,75,0.00,,,0.00,508,Wunderground v.1.15,2013-11-23 18:47:00,
2013-11-23 12:49:00,16.0,9.2,30.85,NNE,15,2.0,15.0,74,0.00,,,0.00,506,Wunderground v.1.15,2013-11-23 18:49:00,
2013-11-23 12:50:00,16.1,9.3,30.85,NNW,336,0.0,6.0,74,0.00,,,0.00,504,Wunderground v.1.15,2013-11-23 18:50:00,
2013-11-23 12:51:00,16.2,9.4,30.85,NE,38,3.0,6.0,74,0.00,,,0.00,503,Wunderground v.1.15,2013-11-23 18:51:00,
2013-11-23 12:52:00,16.5,10.0,30.85,NNW,329,1.0,6.0,75,0.00,,,0.00,503,Wunderground v.1.15,2013-11-23 18:52:00,
2013-11-23 12:54:00,16.6,9.8,30.85,NW,305,12.0,12.0,74,0.00,,,0.00,503,Wunderground v.1.15,2013-11-23 18:54:00,
2013-11-23 12:55:00,16.6,9.8,30.85,NW,314,13.0,13.0,74,0.00,,,0.00,503,Wunderground v.1.15,2013-11-23 18:55:00,
2013-11-23 12:56:00,16.3,9.5,30.85,NW,324,5.0,13.0,74,0.00,,,0.00,501,Wunderground v.1.15,2013-11-23 18:56:00,
2013-11-23 12:58:00,16.2,9.4,30.85,NW,323,7.0,13.0,74,0.00,,,0.00,497,Wunderground v.1.15,2013-11-23 18:58:00,
2013-11-23 13:00:00,16.2,9.4,30.85,NNW,333,6.0,13.0,74,0.00,,,0.00,497,Wunderground v.1.15,2013-11-23 19:00:00,
2013-11-23 13:01:00,16.2,9.7,30.85,NW,316,8.0,8.0,75,0.00,,,0.00,497,Wunderground v.1.15,2013-11-23 19:01:00,
2013-11-23 13:02:00,16.3,9.8,30.85,NW,317,1.0,8.0,75,0.00,,,0.00,497,Wunderground v.1.15,2013-11-23 19:02:00,
2013-11-23 13:04:00,16.3,9.8,30.85,NW,318,9.0,9.0,75,0.00,,,0.00,490,Wunderground v.1.15,2013-11-23 19:04:00,
2013-11-23 13:05:00,16.3,9.8,30.85,NNW,330,3.0,9.0,75,0.00,,,0.00,490,Wunderground v.1.15,2013-11-23 19:05:00,
2013-11-23 13:07:00,16.3,9.8,30.85,NNW,330,6.0,11.0,75,0.00,,,0.00,492,Wunderground v.1.15,2013-11-23 19:07:00,
2013-11-23 13:09:00,16.2,9.4,30.85,NW,324,8.0,14.0,74,0.00,,,0.00,489,Wunderground v.1.15,2013-11-23 19:09:00,
2013-11-23 13:10:00,16.2,9.4,30.85,NW,321,9.0,9.0,74,0.00,,,0.00,489,Wunderground v.1.15,2013-11-23 19:10:00,
2013-11-23 13:11:00,16.1,9.3,30.85,NW,320,11.0,11.0,74,0.00,,,0.00,487,Wunderground v.1.15,2013-11-23 19:11:00,
2013-11-23 13:12:00,16.1,9.6,30.85,NNW,329,6.0,11.0,75,0.00,,,0.00,487,Wunderground v.1.15,2013-11-23 19:12:00,
2013-11-23 13:15:00,16.2,9.7,30.85,NW,313,9.0,11.0,75,0.00,,,0.00,482,Wunderground v.1.15,2013-11-23 19:15:00,
2013-11-23 13:16:00,16.2,9.7,30.85,NW,324,5.0,11.0,75,0.00,,,0.00,482,Wunderground v.1.15,2013-11-23 19:16:00,
2013-11-23 13:18:00,16.4,9.6,30.84,NNW,333,7.0,11.0,74,0.00,,,0.00,480,Wunderground v.1.15,2013-11-23 19:18:00,
2013-11-23 13:20:00,16.3,9.2,30.85,NW,326,3.0,13.0,73,0.00,,,0.00,478,Wunderground v.1.15,2013-11-23 19:20:00,
2013-11-23 13:21:00,16.4,9.6,30.85,NW,313,0.0,13.0,74,0.00,,,0.00,475,Wunderground v.1.15,2013-11-23 19:21:00,
2013-11-23 13:23:00,16.6,10.1,30.85,NW,326,1.0,13.0,75,0.00,,,0.00,473,Wunderground v.1.15,2013-11-23 19:23:00,
2013-11-23 13:25:00,16.7,9.5,30.85,NW,326,5.0,13.0,73,0.00,,,0.00,469,Wunderground v.1.15,2013-11-23 19:25:00,
2013-11-23 13:27:00,16.5,9.4,30.85,NW,315,9.0,13.0,73,0.00,,,0.00,468,Wunderground v.1.15,2013-11-23 19:27:00,
2013-11-23 13:28:00,16.4,9.3,30.85,NNW,329,8.0,13.0,73,0.00,,,0.00,469,Wunderground v.1.15,2013-11-23 19:28:00,
2013-11-23 13:29:00,16.4,9.3,30.85,NW,312,8.0,13.0,73,0.00,,,0.00,466,Wunderground v.1.15,2013-11-23 19:29:00,
2013-11-23 13:30:00,16.5,9.4,30.85,North,9,2.0,6.0,73,0.00,,,0.00,464,Wunderground v.1.15,2013-11-23 19:30:00,
2013-11-23 13:31:00,16.6,9.4,30.85,NW,322,4.0,6.0,73,0.00,,,0.00,464,Wunderground v.1.15,2013-11-23 19:31:00,
2013-11-23 13:32:00,16.7,9.5,30.84,NW,317,9.0,9.0,73,0.00,,,0.00,462,Wunderground v.1.15,2013-11-23 19:32:00,
2013-11-23 13:33:00,16.7,9.5,30.84,NNW,327,8.0,10.0,73,0.00,,,0.00,461,Wunderground v.1.15,2013-11-23 19:33:00,
2013-11-23 13:35:00,16.6,9.4,30.84,NNW,331,8.0,11.0,73,0.00,,,0.00,457,Wunderground v.1.15,2013-11-23 19:35:00,
2013-11-23 13:36:00,16.6,9.8,30.84,NNW,327,1.0,11.0,74,0.00,,,0.00,457,Wunderground v.1.15,2013-11-23 19:36:00,
2013-11-23 13:37:00,16.6,9.8,30.84,NNW,327,2.0,11.0,74,0.00,,,0.00,455,Wunderground v.1.15,2013-11-23 19:37:00,
2013-11-23 13:38:00,16.9,10.3,30.84,NNE,17,1.0,11.0,75,0.00,,,0.00,454,Wunderground v.1.15,2013-11-23 19:38:00,
2013-11-23 13:40:00,17.2,10.0,30.84,NW,323,3.0,6.0,73,0.00,,,0.00,448,Wunderground v.1.15,2013-11-23 19:40:00,
2013-11-23 13:41:00,17.2,10.0,30.84,NW,321,3.0,6.0,73,0.00,,,0.00,448,Wunderground v.1.15,2013-11-23 19:41:00,
2013-11-23 13:42:00,17.2,9.7,30.84,NW,314,8.0,8.0,72,0.00,,,0.00,448,Wunderground v.1.15,2013-11-23 19:42:00,
2013-11-23 13:43:00,17.0,9.5,30.85,NNW,329,3.0,8.0,72,0.00,,,0.00,445,Wunderground v.1.15,2013-11-23 19:43:00,
2013-11-23 13:46:00,16.9,9.7,30.85,NW,317,11.0,12.0,73,0.00,,,0.00,441,Wunderground v.1.15,2013-11-23 19:46:00,
2013-11-23 13:47:00,16.8,9.6,30.84,NW,323,7.0,12.0,73,0.00,,,0.00,439,Wunderground v.1.15,2013-11-23 19:47:00,
2013-11-23 13:48:00,16.7,9.5,30.85,NW,325,8.0,12.0,73,0.00,,,0.00,438,Wunderground v.1.15,2013-11-23 19:48:00,
2013-11-23 13:51:00,16.7,9.5,30.85,NW,316,10.0,12.0,73,0.00,,,0.00,432,Wunderground v.1.15,2013-11-23 19:51:00,
2013-11-23 13:52:00,16.7,9.5,30.85,NW,312,14.0,14.0,73,0.00,,,0.00,429,Wunderground v.1.15,2013-11-23 19:52:00,
2013-11-23 13:53:00,16.7,9.5,30.85,NW,306,10.0,14.0,73,0.00,,,0.00,429,Wunderground v.1.15,2013-11-23 19:53:00,
2013-11-23 13:54:00,16.6,9.4,30.84,NW,319,7.0,14.0,73,0.00,,,0.00,429,Wunderground v.1.15,2013-11-23 19:54:00,
2013-11-23 13:56:00,16.6,9.4,30.84,NW,313,10.0,14.0,73,0.00,,,0.00,425,Wunderground v.1.15,2013-11-23 19:56:00,
2013-11-23 13:57:00,16.6,9.4,30.84,NW,315,6.0,14.0,73,0.00,,,0.00,422,Wunderground v.1.15,2013-11-23 19:57:00,
2013-11-23 13:58:00,16.6,9.4,30.84,NNW,331,7.0,14.0,73,0.00,,,0.00,420,Wunderground v.1.15,2013-11-23 19:58:00,
2013-11-23 13:59:00,16.6,9.4,30.84,NW,313,10.0,14.0,73,0.00,,,0.00,420,Wunderground v.1.15,2013-11-23 19:59:00,
2013-11-23 14:01:00,16.6,9.4,30.84,NW,318,10.0,10.0,73,0.00,,,0.00,415,Wunderground v.1.15,2013-11-23 20:01:00,
2013-11-23 14:03:00,16.7,9.5,30.84,NW,325,6.0,12.0,73,0.00,,,0.00,411,Wunderground v.1.15,2013-11-23 20:03:00,
2013-11-23 14:04:00,16.6,9.4,30.84,NW,320,7.0,12.0,73,0.00,,,0.00,411,Wunderground v.1.15,2013-11-23 20:04:00,
2013-11-23 14:06:00,16.9,9.7,30.84,NW,324,7.0,12.0,73,0.00,,,0.00,404,Wunderground v.1.15,2013-11-23 20:06:00,
2013-11-23 14:08:00,17.0,9.5,30.84,NNW,333,3.0,12.0,72,0.00,,,0.00,403,Wunderground v.1.15,2013-11-23 20:08:00,
2013-11-23 14:09:00,17.1,9.6,30.84,NW,325,5.0,12.0,72,0.00,,,0.00,401,Wunderground v.1.15,2013-11-23 20:09:00,
2013-11-23 14:10:00,17.1,9.6,30.84,NNW,329,2.0,7.0,72,0.00,,,0.00,399,Wunderground v.1.15,2013-11-23 20:10:00,
2013-11-23 14:11:00,17.3,9.8,30.84,NNW,331,3.0,7.0,72,0.00,,,0.00,397,Wunderground v.1.15,2013-11-23 20:11:00,
2013-11-23 14:13:00,17.4,9.3,30.84,NNW,332,2.0,7.0,70,0.00,,,0.00,392,Wunderground v.1.15,2013-11-23 20:13:00,
2013-11-23 14:14:00,17.4,9.3,30.84,NW,326,4.0,7.0,70,0.00,,,0.00,390,Wunderground v.1.15,2013-11-23 20:14:00,
2013-11-23 14:15:00,17.4,9.3,30.84,NNW,340,4.0,7.0,70,0.00,,,0.00,390,Wunderground v.1.15,2013-11-23 20:15:00,
2013-11-23 14:16:00,17.5,9.4,30.84,NE,38,7.0,9.0,70,0.00,,,0.00,385,Wunderground v.1.15,2013-11-23 20:16:00,
2013-11-23 14:17:00,17.5,9.1,30.84,NNW,348,5.0,9.0,69,0.00,,,0.00,383,Wunderground v.1.15,2013-11-23 20:17:00,
2013-11-23 14:18:00,17.5,8.7,30.84,NNE,19,6.0,9.0,68,0.00,,,0.00,383,Wunderground v.1.15,2013-11-23 20:18:00,
2013-11-23 14:19:00,17.5,8.7,30.84,NNW,344,10.0,10.0,68,0.00,,,0.00,380,Wunderground v.1.15,2013-11-23 20:19:00,
2013-11-23 14:21:00,17.5,8.4,30.84,NE,42,6.0,6.0,67,0.00,,,0.00,376,Wunderground v.1.15,2013-11-23 20:21:00,
2013-11-23 14:22:00,17.5,8.4,30.84,NW,313,6.0,6.0,67,0.00,,,0.00,374,Wunderground v.1.15,2013-11-23 20:22:00,
2013-11-23 14:24:00,17.5,8.7,30.84,North,349,1.0,6.0,68,0.00,,,0.00,369,Wunderground v.1.15,2013-11-23 20:24:00,
2013-11-23 14:25:00,17.6,8.8,30.84,NNW,338,2.0,6.0,68,0.00,,,0.00,367,Wunderground v.1.15,2013-11-23 20:25:00,
2013-11-23 14:26:00,17.7,9.2,30.84,NW,318,6.0,6.0,69,0.00,,,0.00,366,Wunderground v.1.15,2013-11-23 20:26:00,
2013-11-23 14:27:00,17.8,9.0,30.84,North,350,2.0,6.0,68,0.00,,,0.00,360,Wunderground v.1.15,2013-11-23 20:27:00,
2013-11-23 14:28:00,17.9,9.1,30.84,North,11,5.0,6.0,68,0.00,,,0.00,359,Wunderground v.1.15,2013-11-23 20:28:00,
2013-11-23 14:29:00,18.0,8.9,30.84,NW,320,7.0,11.0,67,0.00,,,0.00,357,Wunderground v.1.15,2013-11-23 20:29:00,
2013-11-23 14:30:00,18.0,8.9,30.84,NW,313,3.0,6.0,67,0.00,,,0.00,355,Wunderground v.1.15,2013-11-23 20:30:00,
2013-11-23 14:31:00,17.9,9.1,30.84,North,5,2.0,9.0,68,0.00,,,0.00,355,Wunderground v.1.15,2013-11-23 20:31:00,
2013-11-23 14:33:00,17.7,8.9,30.84,NW,310,12.0,12.0,68,0.00,,,0.00,350,Wunderground v.1.15,2013-11-23 20:33:00,
2013-11-23 14:35:00,17.5,9.1,30.84,NNW,340,5.0,12.0,69,0.00,,,0.00,346,Wunderground v.1.15,2013-11-23 20:35:00,
2013-11-23 14:36:00,17.6,9.2,30.84,NNW,346,9.0,12.0,69,0.00,,,0.00,343,Wunderground v.1.15,2013-11-23 20:36:00,
2013-11-23 14:38:00,17.6,9.5,30.84,NNW,345,4.0,12.0,70,0.00,,,0.00,338,Wunderground v.1.15,2013-11-23 20:38:00,
2013-11-23 14:40:00,17.5,9.1,30.84,NW,322,8.0,9.0,69,0.00,,,0.00,334,Wunderground v.1.15,2013-11-23 20:40:00,
2013-11-23 14:41:00,17.3,8.5,30.84,NW,325,3.0,10.0,68,0.00,,,0.00,330,Wunderground v.1.15,2013-11-23 20:41:00,
2013-11-23 14:43:00,17.3,8.5,30.84,NNW,332,2.0,10.0,68,0.00,,,0.00,325,Wunderground v.1.15,2013-11-23 20:43:00,
2013-11-23 14:44:00,17.5,9.1,30.84,NNW,338,5.0,10.0,69,0.00,,,0.00,323,Wunderground v.1.15,2013-11-23 20:44:00,
2013-11-23 14:45:00,17.6,9.2,30.84,NW,323,3.0,10.0,69,0.00,,,0.00,320,Wunderground v.1.15,2013-11-23 20:45:00,
2013-11-23 14:46:00,17.7,9.2,30.84,NW,325,1.0,10.0,69,0.00,,,0.00,320,Wunderground v.1.15,2013-11-23 20:46:00,
2013-11-23 14:48:00,17.9,8.8,30.84,NNE,13,1.0,10.0,67,0.00,,,0.00,313,Wunderground v.1.15,2013-11-23 20:48:00,
2013-11-23 14:50:00,17.8,8.4,30.84,North,9,1.0,4.0,66,0.00,,,0.00,308,Wunderground v.1.15,2013-11-23 20:50:00,
2013-11-23 14:51:00,17.8,8.4,30.84,NNW,348,0.0,4.0,66,0.00,,,0.00,306,Wunderground v.1.15,2013-11-23 20:51:00,
2013-11-23 14:52:00,18.0,8.9,30.84,NNW,338,3.0,8.0,67,0.00,,,0.00,304,Wunderground v.1.15,2013-11-23 20:52:00,
2013-11-23 14:53:00,18.1,9.6,30.84,NNW,343,4.0,8.0,69,0.00,,,0.00,301,Wunderground v.1.15,2013-11-23 20:53:00,
2013-11-23 14:55:00,18.1,9.0,30.84,North,360,1.0,8.0,67,0.00,,,0.00,295,Wunderground v.1.15,2013-11-23 20:55:00,
2013-11-23 14:56:00,18.1,9.0,30.83,NW,314,3.0,8.0,67,0.00,,,0.00,294,Wunderground v.1.15,2013-11-23 20:56:00,
2013-11-23 14:57:00,17.9,8.8,30.83,NW,309,9.0,10.0,67,0.00,,,0.00,288,Wunderground v.1.15,2013-11-23 20:57:00,
2013-11-23 14:58:00,17.8,8.7,30.83,NW,321,3.0,10.0,67,0.00,,,0.00,287,Wunderground v.1.15,2013-11-23 20:58:00,
2013-11-23 15:00:00,17.6,8.8,30.83,North,10,4.0,7.0,68,0.00,,,0.00,281,Wunderground v.1.15,2013-11-23 21:00:00,
2013-11-23 15:01:00,17.7,8.9,30.83,North,10,0.0,7.0,68,0.00,,,0.00,279,Wunderground v.1.15,2013-11-23 21:01:00,
2013-11-23 15:02:00,17.6,8.5,30.83,NNW,334,4.0,7.0,67,0.00,,,0.00,276,Wunderground v.1.15,2013-11-23 21:02:00,
2013-11-23 15:03:00,17.6,8.5,30.83,NNW,343,2.0,7.0,67,0.00,,,0.00,271,Wunderground v.1.15,2013-11-23 21:03:00,
2013-11-23 15:05:00,17.8,9.0,30.83,NNE,29,0.0,7.0,68,0.00,,,0.00,265,Wunderground v.1.15,2013-11-23 21:05:00,
2013-11-23 15:07:00,17.9,9.1,30.84,NNW,339,3.0,7.0,68,0.00,,,0.00,260,Wunderground v.1.15,2013-11-23 21:07:00,
2013-11-23 15:08:00,18.1,9.3,30.83,NNW,333,0.0,7.0,68,0.00,,,0.00,258,Wunderground v.1.15,2013-11-23 21:08:00,
2013-11-23 15:11:00,17.9,8.8,30.84,NE,44,1.0,3.0,67,0.00,,,0.00,246,Wunderground v.1.15,2013-11-23 21:11:00,
2013-11-23 15:12:00,17.9,8.5,30.84,NE,42,0.0,3.0,66,0.00,,,0.00,243,Wunderground v.1.15,2013-11-23 21:12:00,
2013-11-23 15:13:00,17.9,8.8,30.83,NW,321,4.0,4.0,67,0.00,,,0.00,241,Wunderground v.1.15,2013-11-23 21:13:00,
2013-11-23 15:15:00,17.9,8.5,30.83,NNE,19,6.0,6.0,66,0.00,,,0.00,236,Wunderground v.1.15,2013-11-23 21:15:00,
2013-11-23 15:16:00,17.8,8.0,30.83,NNE,14,2.0,6.0,65,0.00,,,0.00,229,Wunderground v.1.15,2013-11-23 21:16:00,
2013-11-23 15:17:00,17.8,8.4,30.83,NE,40,3.0,6.0,66,0.00,,,0.00,229,Wunderground v.1.15,2013-11-23 21:17:00,
2013-11-23 15:18:00,17.8,8.4,30.83,NNW,344,6.0,6.0,66,0.00,,,0.00,221,Wunderground v.1.15,2013-11-23 21:18:00,
2013-11-23 15:19:00,17.8,8.4,30.83,NE,34,4.0,10.0,66,0.00,,,0.00,221,Wunderground v.1.15,2013-11-23 21:19:00,
2013-11-23 15:20:00,17.7,7.9,30.83,NE,44,6.0,6.0,65,0.00,,,0.00,218,Wunderground v.1.15,2013-11-23 21:20:00,
2013-11-23 15:21:00,17.6,7.5,30.83,NNE,31,5.0,9.0,64,0.00,,,0.00,213,Wunderground v.1.15,2013-11-23 21:21:00,
2013-11-23 15:22:00,17.6,7.5,30.83,NNW,343,3.0,9.0,64,0.00,,,0.00,209,Wunderground v.1.15,2013-11-23 21:22:00,
2013-11-23 15:23:00,17.5,7.7,30.83,North,5,0.0,9.0,65,0.00,,,0.00,207,Wunderground v.1.15,2013-11-23 21:23:00,
2013-11-23 15:24:00,17.5,7.7,30.83,NNE,15,5.0,9.0,65,0.00,,,0.00,204,Wunderground v.1.15,2013-11-23 21:24:00,
2013-11-23 15:25:00,17.5,7.4,30.83,NNE,27,4.0,9.0,64,0.00,,,0.00,197,Wunderground v.1.15,2013-11-23 21:25:00,
2013-11-23 15:27:00,17.6,7.5,30.83,NNW,347,1.0,9.0,64,0.00,,,0.00,192,Wunderground v.1.15,2013-11-23 21:27:00,
2013-11-23 15:29:00,17.6,7.8,30.83,North,11,3.0,9.0,65,0.00,,,0.00,186,Wunderground v.1.15,2013-11-23 21:29:00,
2013-11-23 15:31:00,17.5,8.1,30.83,NW,321,1.0,5.0,66,0.00,,,0.00,181,Wunderground v.1.15,2013-11-23 21:31:00,
2013-11-23 15:33:00,17.4,8.0,30.83,NW,317,7.0,11.0,66,0.00,,,0.00,176,Wunderground v.1.15,2013-11-23 21:33:00,
2013-11-23 15:34:00,17.4,8.0,30.83,NNE,22,4.0,11.0,66,0.00,,,0.00,169,Wunderground v.1.15,2013-11-23 21:34:00,
2013-11-23 15:36:00,17.4,7.6,30.83,NNW,327,5.0,11.0,65,0.00,,,0.00,163,Wunderground v.1.15,2013-11-23 21:36:00,
2013-11-23 15:38:00,17.3,7.5,30.83,NNE,26,0.0,11.0,65,0.00,,,0.00,156,Wunderground v.1.15,2013-11-23 21:38:00,
2013-11-23 15:39:00,17.3,7.2,30.83,North,9,5.0,11.0,64,0.00,,,0.00,151,Wunderground v.1.15,2013-11-23 21:39:00,
2013-11-23 15:41:00,17.3,7.2,30.83,North,5,4.0,5.0,64,0.00,,,0.00,146,Wunderground v.1.15,2013-11-23 21:41:00,
2013-11-23 15:43:00,17.3,7.5,30.83,NNE,30,3.0,9.0,65,0.00,,,0.00,141,Wunderground v.1.15,2013-11-23 21:43:00,
2013-11-23 15:44:00,17.2,7.4,30.83,NNE,14,3.0,9.0,65,0.00,,,0.00,137,Wunderground v.1.15,2013-11-23 21:44:00,
2013-11-23 15:45:00,17.2,7.4,30.84,NNE,33,6.0,9.0,65,0.00,,,0.00,130,Wunderground v.1.15,2013-11-23 21:45:00,
2013-11-23 15:46:00,17.2,7.8,30.84,North,5,0.0,9.0,66,0.00,,,0.00,130,Wunderground v.1.15,2013-11-23 21:46:00,
2013-11-23 15:48:00,17.3,7.9,30.84,North,11,4.0,9.0,66,0.00,,,0.00,123,Wunderground v.1.15,2013-11-23 21:48:00,
2013-11-23 15:49:00,17.3,7.9,30.84,NNE,19,2.0,9.0,66,0.00,,,0.00,118,Wunderground v.1.15,2013-11-23 21:49:00,
2013-11-23 15:50:00,17.3,7.9,30.84,NNE,19,0.0,4.0,66,0.00,,,0.00,118,Wunderground v.1.15,2013-11-23 21:50:00,
2013-11-23 15:51:00,17.3,7.9,30.84,NNW,348,0.0,4.0,66,0.00,,,0.00,114,Wunderground v.1.15,2013-11-23 21:51:00,
2013-11-23 15:53:00,17.2,7.8,30.84,NNE,15,2.0,6.0,66,0.00,,,0.00,107,Wunderground v.1.15,2013-11-23 21:53:00,
2013-11-23 15:54:00,17.1,7.7,30.84,NNE,24,7.0,7.0,66,0.00,,,0.00,102,Wunderground v.1.15,2013-11-23 21:54:00,
2013-11-23 15:55:00,17.1,7.3,30.84,North,10,0.0,8.0,65,0.00,,,0.00,98,Wunderground v.1.15,2013-11-23 21:55:00,
2013-11-23 15:56:00,17.1,7.3,30.84,NE,49,8.0,8.0,65,0.00,,,0.00,97,Wunderground v.1.15,2013-11-23 21:56:00,
2013-11-23 15:57:00,17.0,7.3,30.84,NNE,26,2.0,8.0,65,0.00,,,0.00,97,Wunderground v.1.15,2013-11-23 21:57:00,
2013-11-23 15:58:00,16.9,7.2,30.84,North,5,5.0,8.0,65,0.00,,,0.00,91,Wunderground v.1.15,2013-11-23 21:58:00,
2013-11-23 15:59:00,16.9,7.2,30.84,NNE,18,1.0,8.0,65,0.00,,,0.00,86,Wunderground v.1.15,2013-11-23 21:59:00,
2013-11-23 16:00:00,16.9,7.2,30.84,NNE,19,1.0,3.0,65,0.00,,,0.00,86,Wunderground v.1.15,2013-11-23 22:00:00,
2013-11-23 16:01:00,16.9,7.2,30.84,NNE,22,3.0,3.0,65,0.00,,,0.00,81,Wunderground v.1.15,2013-11-23 22:01:00,
2013-11-23 16:02:00,16.9,7.2,30.84,NNE,22,0.0,3.0,65,0.00,,,0.00,81,Wunderground v.1.15,2013-11-23 22:02:00,
2013-11-23 16:04:00,16.9,7.5,30.84,NNE,18,0.0,3.0,66,0.00,,,0.00,74,Wunderground v.1.15,2013-11-23 22:04:00,
2013-11-23 16:05:00,17.0,7.6,30.84,NNE,13,1.0,3.0,66,0.00,,,0.00,70,Wunderground v.1.15,2013-11-23 22:05:00,
2013-11-23 16:06:00,16.8,7.4,30.84,NW,323,0.0,5.0,66,0.00,,,0.00,67,Wunderground v.1.15,2013-11-23 22:06:00,
2013-11-23 16:07:00,16.8,7.4,30.84,NW,326,1.0,5.0,66,0.00,,,0.00,67,Wunderground v.1.15,2013-11-23 22:07:00,
2013-11-23 16:09:00,16.6,7.5,30.84,NNW,340,0.0,5.0,67,0.00,,,0.00,60,Wunderground v.1.15,2013-11-23 22:09:00,
2013-11-23 16:10:00,16.7,8.0,30.84,North,355,0.0,4.0,68,0.00,,,0.00,58,Wunderground v.1.15,2013-11-23 22:10:00,
2013-11-23 16:12:00,16.7,8.0,30.84,North,355,0.0,4.0,68,0.00,,,0.00,53,Wunderground v.1.15,2013-11-23 22:12:00,
2013-11-23 16:14:00,16.6,8.2,30.84,North,355,0.0,4.0,69,0.00,,,0.00,47,Wunderground v.1.15,2013-11-23 22:14:00,
2013-11-23 16:16:00,16.5,7.8,30.84,North,355,4.0,5.0,68,0.00,,,0.00,46,Wunderground v.1.15,2013-11-23 22:16:00,
2013-11-23 16:17:00,16.6,7.5,30.84,NNE,18,1.0,5.0,67,0.00,,,0.00,40,Wunderground v.1.15,2013-11-23 22:17:00,
2013-11-23 16:18:00,16.6,7.5,30.84,NNE,20,1.0,5.0,67,0.00,,,0.00,39,Wunderground v.1.15,2013-11-23 22:18:00,
2013-11-23 16:21:00,16.5,7.4,30.84,NNW,348,0.0,1.0,67,0.00,,,0.00,32,Wunderground v.1.15,2013-11-23 22:21:00,
2013-11-23 16:23:00,16.3,7.6,30.84,NNE,30,0.0,3.0,68,0.00,,,0.00,28,Wunderground v.1.15,2013-11-23 22:23:00,
2013-11-23 16:24:00,16.2,7.5,30.84,NNE,19,0.0,3.0,68,0.00,,,0.00,26,Wunderground v.1.15,2013-11-23 22:24:00,
2013-11-23 16:26:00,16.2,7.5,30.84,North,5,0.0,6.0,68,0.00,,,0.00,21,Wunderground v.1.15,2013-11-23 22:26:00,
2013-11-23 16:27:00,16.2,7.5,30.84,North,5,1.0,6.0,68,0.00,,,0.00,21,Wunderground v.1.15,2013-11-23 22:27:00,
2013-11-23 16:28:00,16.2,7.5,30.84,North,5,1.0,6.0,68,0.00,,,0.00,19,Wunderground v.1.15,2013-11-23 22:28:00,
2013-11-23 16:29:00,16.1,7.4,30.84,NNE,17,0.0,6.0,68,0.00,,,0.00,18,Wunderground v.1.15,2013-11-23 22:29:00,
2013-11-23 16:31:00,16.0,7.3,30.84,NW,319,0.0,2.0,68,0.00,,,0.00,16,Wunderground v.1.15,2013-11-23 22:31:00,
2013-11-23 16:32:00,15.9,7.2,30.84,NW,319,0.0,2.0,68,0.00,,,0.00,16,Wunderground v.1.15,2013-11-23 22:32:00,
2013-11-23 16:33:00,15.8,7.4,30.84,NW,321,0.0,2.0,69,0.00,,,0.00,14,Wunderground v.1.15,2013-11-23 22:33:00,
2013-11-23 16:35:00,15.6,7.2,30.83,NW,319,0.0,2.0,69,0.00,,,0.00,14,Wunderground v.1.15,2013-11-23 22:35:00,
2013-11-23 16:37:00,15.2,7.2,30.83,NW,317,4.0,4.0,70,0.00,,,0.00,12,Wunderground v.1.15,2013-11-23 22:37:00,
2013-11-23 16:39:00,15.1,7.4,30.84,NW,318,0.0,4.0,71,0.00,,,0.00,12,Wunderground v.1.15,2013-11-23 22:39:00,
2013-11-23 16:40:00,15.0,7.3,30.83,NW,318,0.0,1.0,71,0.00,,,0.00,11,Wunderground v.1.15,2013-11-23 22:40:00,
2013-11-23 16:42:00,14.9,7.2,30.83,NW,318,0.0,1.0,71,0.00,,,0.00,11,Wunderground v.1.15,2013-11-23 22:42:00,
2013-11-23 16:44:00,14.6,6.9,30.83,NW,318,0.0,1.0,71,0.00,,,0.00,9,Wunderground v.1.15,2013-11-23 22:44:00,
2013-11-23 16:46:00,14.6,7.2,30.83,NW,318,0.0,1.0,72,0.00,,,0.00,7,Wunderground v.1.15,2013-11-23 22:46:00,
2013-11-23 16:47:00,14.7,7.0,30.83,NW,318,0.0,1.0,71,0.00,,,0.00,5,Wunderground v.1.15,2013-11-23 22:47:00,
2013-11-23 16:48:00,14.6,6.9,30.83,NW,318,1.0,2.0,71,0.00,,,0.00,5,Wunderground v.1.15,2013-11-23 22:48:00,
2013-11-23 16:49:00,14.5,6.8,30.83,NW,318,0.0,2.0,71,0.00,,,0.00,5,Wunderground v.1.15,2013-11-23 22:49:00,
2013-11-23 16:50:00,14.3,6.6,30.83,NW,318,0.0,0.0,71,0.00,,,0.00,5,Wunderground v.1.15,2013-11-23 22:50:00,
2013-11-23 16:51:00,14.1,6.7,30.83,NW,318,1.0,1.0,72,0.00,,,0.00,0,Wunderground v.1.15,2013-11-23 22:51:00,
2013-11-23 16:52:00,14.0,6.6,30.83,NW,318,0.0,1.0,72,0.00,,,0.00,0,Wunderground v.1.15,2013-11-23 22:52:00,
2013-11-23 16:53:00,13.9,6.5,30.83,NW,318,1.0,1.0,72,0.00,,,0.00,0,Wunderground v.1.15,2013-11-23 22:53:00,
2013-11-23 16:54:00,13.8,6.4,30.83,NW,318,0.0,2.0,72,0.00,,,0.00,0,Wunderground v.1.15,2013-11-23 22:54:00,
2013-11-23 16:56:00,13.7,6.6,30.83,NW,318,0.0,2.0,73,0.00,,,0.00,0,Wunderground v.1.15,2013-11-23 22:56:00,
2013-11-23 16:57:00,13.7,6.6,30.83,NW,318,0.0,2.0,73,0.00,,,0.00,0,Wunderground v.1.15,2013-11-23 22:57:00,
2013-11-23 16:58:00,13.6,6.5,30.83,NW,318,0.0,2.0,73,0.00,,,0.00,0,Wunderground v.1.15,2013-11-23 22:58:00,
2013-11-23 16:59:00,13.5,6.5,30.83,NW,318,0.0,2.0,73,0.00,,,0.00,0,Wunderground v.1.15,2013-11-23 22:59:00,
2013-11-23 17:01:00,13.5,6.5,30.83,NW,318,0.0,1.0,73,0.00,,,0.00,0,Wunderground v.1.15,2013-11-23 23:01:00,
2013-11-23 17:02:00,13.5,6.5,30.83,NW,318,0.0,1.0,73,0.00,,,0.00,0,Wunderground v.1.15,2013-11-23 23:02:00,
2013-11-23 17:03:00,13.4,6.4,30.83,NW,318,0.0,1.0,73,0.00,,,0.00,0,Wunderground v.1.15,2013-11-23 23:03:00,
2013-11-23 17:04:00,13.2,6.2,30.83,NW,318,0.0,1.0,73,0.00,,,0.00,0,Wunderground v.1.15,2013-11-23 23:04:00,
2013-11-23 17:06:00,13.1,6.4,30.84,NW,318,0.0,1.0,74,0.00,,,0.00,0,Wunderground v.1.15,2013-11-23 23:06:00,
2013-11-23 17:07:00,13.0,6.3,30.84,NW,318,0.0,1.0,74,0.00,,,0.00,0,Wunderground v.1.15,2013-11-23 23:07:00,
2013-11-23 17:08:00,12.8,6.1,30.84,NW,318,0.0,1.0,74,0.00,,,0.00,0,Wunderground v.1.15,2013-11-23 23:08:00,
2013-11-23 17:09:00,12.8,6.1,30.84,NW,318,0.0,1.0,74,0.00,,,0.00,0,Wunderground v.1.15,2013-11-23 23:09:00,
2013-11-23 17:10:00,12.5,5.8,30.83,NW,318,0.0,0.0,74,0.00,,,0.00,0,Wunderground v.1.15,2013-11-23 23:10:00,
2013-11-23 17:11:00,12.3,5.6,30.83,NW,318,0.0,0.0,74,0.00,,,0.00,0,Wunderground v.1.15,2013-11-23 23:11:00,
2013-11-23 17:12:00,11.9,5.2,30.83,NW,318,0.0,0.0,74,0.00,,,0.00,0,Wunderground v.1.15,2013-11-23 23:12:00,
2013-11-23 17:13:00,11.3,4.9,30.84,NW,318,0.0,0.0,75,0.00,,,0.00,0,Wunderground v.1.15,2013-11-23 23:13:00,
2013-11-23 17:14:00,11.3,4.9,30.84,NW,318,0.0,0.0,75,0.00,,,0.00,0,Wunderground v.1.15,2013-11-23 23:14:00,
2013-11-23 17:15:00,10.8,4.7,30.84,NW,318,0.0,0.0,76,0.00,,,0.00,0,Wunderground v.1.15,2013-11-23 23:15:00,
2013-11-23 17:16:00,10.6,4.5,30.83,NW,318,0.0,0.0,76,0.00,,,0.00,0,Wunderground v.1.15,2013-11-23 23:16:00,
2013-11-23 17:17:00,10.4,4.6,30.83,NW,318,0.0,0.0,77,0.00,,,0.00,0,Wunderground v.1.15,2013-11-23 23:17:00,
2013-11-23 17:19:00,10.3,4.8,30.83,NW,318,0.0,0.0,78,0.00,,,0.00,0,Wunderground v.1.15,2013-11-23 23:19:00,
2013-11-23 17:21:00,10.5,5.3,30.83,NW,318,0.0,0.0,79,0.00,,,0.00,0,Wunderground v.1.15,2013-11-23 23:21:00,
2013-11-23 17:22:00,10.6,5.4,30.83,NW,318,0.0,0.0,79,0.00,,,0.00,0,Wunderground v.1.15,2013-11-23 23:22:00,
2013-11-23 17:24:00,10.6,5.4,30.83,NW,318,0.0,0.0,79,0.00,,,0.00,0,Wunderground v.1.15,2013-11-23 23:24:00,
2013-11-23 17:25:00,10.6,5.4,30.83,NW,318,0.0,0.0,79,0.00,,,0.00,0,Wunderground v.1.15,2013-11-23 23:25:00,
2013-11-23 17:26:00,10.6,5.4,30.83,NW,318,0.0,0.0,79,0.00,,,0.00,0,Wunderground v.1.15,2013-11-23 23:26:00,
2013-11-23 17:27:00,10.5,5.0,30.83,NW,318,0.0,0.0,78,0.00,,,0.00,0,Wunderground v.1.15,2013-11-23 23:27:00,
2013-11-23 17:28:00,10.5,5.0,30.83,NW,318,0.0,0.0,78,0.00,,,0.00,0,Wunderground v.1.15,2013-11-23 23:28:00,
2013-11-23 17:29:00,10.3,4.8,30.83,NW,318,0.0,0.0,78,0.00,,,0.00,0,Wunderground v.1.15,2013-11-23 23:29:00,
2013-11-23 17:30:00,10.2,4.7,30.83,NW,318,0.0,0.0,78,0.00,,,0.00,0,Wunderground v.1.15,2013-11-23 23:30:00,
2013-11-23 17:31:00,10.2,5.0,30.83,NW,318,0.0,0.0,79,0.00,,,0.00,0,Wunderground v.1.15,2013-11-23 23:31:00,
2013-11-23 17:32:00,10.2,5.0,30.83,NW,318,0.0,0.0,79,0.00,,,0.00,0,Wunderground v.1.15,2013-11-23 23:32:00,
2013-11-23 17:33:00,10.3,5.1,30.83,NW,318,0.0,0.0,79,0.00,,,0.00,0,Wunderground v.1.15,2013-11-23 23:33:00,
2013-11-23 17:34:00,10.3,5.1,30.83,NW,318,0.0,0.0,79,0.00,,,0.00,0,Wunderground v.1.15,2013-11-23 23:34:00,
2013-11-23 17:35:00,10.3,5.4,30.82,NW,318,0.0,0.0,80,0.00,,,0.00,0,Wunderground v.1.15,2013-11-23 23:35:00,
2013-11-23 17:36:00,10.4,5.5,30.82,NW,318,0.0,0.0,80,0.00,,,0.00,0,Wunderground v.1.15,2013-11-23 23:36:00,
2013-11-23 17:37:00,10.4,5.5,30.82,NW,318,0.0,0.0,80,0.00,,,0.00,0,Wunderground v.1.15,2013-11-23 23:37:00,
2013-11-23 17:38:00,10.3,5.1,30.82,NW,318,0.0,0.0,79,0.00,,,0.00,0,Wunderground v.1.15,2013-11-23 23:38:00,
2013-11-23 17:40:00,10.0,4.8,30.82,NW,318,0.0,0.0,79,0.00,,,0.00,0,Wunderground v.1.15,2013-11-23 23:40:00,
2013-11-23 17:41:00,9.6,4.4,30.82,NW,318,0.0,0.0,79,0.00,,,0.00,0,Wunderground v.1.15,2013-11-23 23:41:00,
2013-11-23 17:43:00,9.1,3.6,30.82,NW,318,0.0,0.0,78,0.00,,,0.00,0,Wunderground v.1.15,2013-11-23 23:43:00,
2013-11-23 17:45:00,8.4,3.2,30.82,NW,318,0.0,0.0,79,0.00,,,0.00,0,Wunderground v.1.15,2013-11-23 23:45:00,
2013-11-23 17:46:00,7.9,2.7,30.82,NW,318,0.0,0.0,79,0.00,,,0.00,0,Wunderground v.1.15,2013-11-23 23:46:00,
2013-11-23 17:48:00,7.6,2.7,30.82,NW,318,0.0,0.0,80,0.00,,,0.00,0,Wunderground v.1.15,2013-11-23 23:48:00,
2013-11-23 17:50:00,7.5,2.9,30.82,NW,318,0.0,0.0,81,0.00,,,0.00,0,Wunderground v.1.15,2013-11-23 23:50:00,
2013-11-23 17:52:00,7.7,3.4,30.82,NW,318,0.0,0.0,82,0.00,,,0.00,0,Wunderground v.1.15,2013-11-23 23:52:00,
2013-11-23 17:54:00,8.1,3.7,30.82,NW,318,0.0,0.0,82,0.00,,,0.00,0,Wunderground v.1.15,2013-11-23 23:54:00,
2013-11-23 17:55:00,8.2,3.8,30.82,NW,318,0.0,0.0,82,0.00,,,0.00,0,Wunderground v.1.15,2013-11-23 23:55:00,
2013-11-23 17:56:00,8.1,3.7,30.82,NW,318,0.0,0.0,82,0.00,,,0.00,0,Wunderground v.1.15,2013-11-23 23:56:00,
2013-11-23 17:57:00,8.1,3.7,30.82,NW,318,0.0,0.0,82,0.00,,,0.00,0,Wunderground v.1.15,2013-11-23 23:57:00,
2013-11-23 17:59:00,7.9,3.5,30.82,NW,318,0.0,0.0,82,0.00,,,0.00,0,Wunderground v.1.15,2013-11-23 23:59:00,
2013-11-23 18:00:00,7.9,3.5,30.82,NW,318,0.0,0.0,82,0.00,,,0.00,0,Wunderground v.1.15,2013-11-24 00:00:00,
2013-11-23 18:01:00,8.0,3.6,30.82,NW,318,0.0,0.0,82,0.00,,,0.00,0,Wunderground v.1.15,2013-11-24 00:01:00,
2013-11-23 18:02:00,8.0,3.6,30.82,NW,318,0.0,0.0,82,0.00,,,0.00,0,Wunderground v.1.15,2013-11-24 00:02:00,
2013-11-23 18:05:00,7.9,3.8,30.82,NW,318,0.0,0.0,83,0.00,,,0.00,0,Wunderground v.1.15,2013-11-24 00:05:00,
2013-11-23 18:06:00,8.0,3.9,30.82,NW,318,0.0,0.0,83,0.00,,,0.00,0,Wunderground v.1.15,2013-11-24 00:06:00,
2013-11-23 18:07:00,8.0,3.9,30.81,NW,318,0.0,0.0,83,0.00,,,0.00,0,Wunderground v.1.15,2013-11-24 00:07:00,
2013-11-23 18:10:00,8.3,4.2,30.82,NW,318,0.0,0.0,83,0.00,,,0.00,0,Wunderground v.1.15,2013-11-24 00:10:00,
2013-11-23 18:12:00,8.7,4.9,30.82,NW,318,0.0,0.0,84,0.00,,,0.00,0,Wunderground v.1.15,2013-11-24 00:12:00,
2013-11-23 18:13:00,8.9,5.1,30.82,NW,318,0.0,0.0,84,0.00,,,0.00,0,Wunderground v.1.15,2013-11-24 00:13:00,
2013-11-23 18:15:00,9.3,5.2,30.82,NW,318,0.0,0.0,83,0.00,,,0.00,0,Wunderground v.1.15,2013-11-24 00:15:00,
2013-11-23 18:16:00,9.4,5.3,30.82,NW,318,0.0,0.0,83,0.00,,,0.00,0,Wunderground v.1.15,2013-11-24 00:16:00,
2013-11-23 18:17:00,9.5,5.4,30.82,NW,318,0.0,0.0,83,0.00,,,0.00,0,Wunderground v.1.15,2013-11-24 00:17:00,
2013-11-23 18:18:00,9.5,5.4,30.82,NW,318,0.0,0.0,83,0.00,,,0.00,0,Wunderground v.1.15,2013-11-24 00:18:00,
2013-11-23 18:20:00,9.3,4.9,30.82,NW,318,0.0,0.0,82,0.00,,,0.00,0,Wunderground v.1.15,2013-11-24 00:20:00,
2013-11-23 18:21:00,9.3,4.9,30.82,NW,318,0.0,0.0,82,0.00,,,0.00,0,Wunderground v.1.15,2013-11-24 00:21:00,
2013-11-23 18:22:00,9.2,4.8,30.82,NW,318,0.0,0.0,82,0.00,,,0.00,0,Wunderground v.1.15,2013-11-24 00:22:00,
2013-11-23 18:24:00,9.2,4.8,30.82,NW,318,0.0,0.0,82,0.00,,,0.00,0,Wunderground v.1.15,2013-11-24 00:24:00,
2013-11-23 18:25:00,9.1,4.7,30.82,NW,318,0.0,0.0,82,0.00,,,0.00,0,Wunderground v.1.15,2013-11-24 00:25:00,
2013-11-23 18:26:00,9.1,4.7,30.82,NW,318,0.0,0.0,82,0.00,,,0.00,0,Wunderground v.1.15,2013-11-24 00:26:00,
2013-11-23 18:27:00,8.7,4.3,30.82,NW,318,0.0,0.0,82,0.00,,,0.00,0,Wunderground v.1.15,2013-11-24 00:27:00,
2013-11-23 18:30:00,7.8,3.2,30.82,NW,318,0.0,0.0,81,0.00,,,0.00,0,Wunderground v.1.15,2013-11-24 00:30:00,
2013-11-23 18:31:00,7.8,3.4,30.82,NW,318,0.0,0.0,82,0.00,,,0.00,0,Wunderground v.1.15,2013-11-24 00:31:00,
2013-11-23 18:32:00,7.8,3.7,30.82,NW,318,0.0,0.0,83,0.00,,,0.00,0,Wunderground v.1.15,2013-11-24 00:32:00,
2013-11-23 18:36:00,8.2,4.4,30.82,NW,318,0.0,0.0,84,0.00,,,0.00,0,Wunderground v.1.15,2013-11-24 00:36:00,
2013-11-23 18:37:00,8.5,4.7,30.82,NW,318,0.0,0.0,84,0.00,,,0.00,0,Wunderground v.1.15,2013-11-24 00:37:00,
2013-11-23 18:38:00,8.5,4.7,30.82,NW,318,0.0,0.0,84,0.00,,,0.00,0,Wunderground v.1.15,2013-11-24 00:38:00,
2013-11-23 18:41:00,8.6,4.5,30.81,NW,318,0.0,0.0,83,0.00,,,0.00,0,Wunderground v.1.15,2013-11-24 00:41:00,
2013-11-23 18:42:00,8.7,4.6,30.81,NW,318,0.0,0.0,83,0.00,,,0.00,0,Wunderground v.1.15,2013-11-24 00:42:00,
2013-11-23 18:43:00,8.7,4.6,30.81,NW,318,0.0,0.0,83,0.00,,,0.00,0,Wunderground v.1.15,2013-11-24 00:43:00,
2013-11-23 18:46:00,9.0,4.9,30.81,NW,318,0.0,0.0,83,0.00,,,0.00,0,Wunderground v.1.15,2013-11-24 00:46:00,
2013-11-23 18:47:00,9.1,5.0,30.81,NW,318,0.0,0.0,83,0.00,,,0.00,0,Wunderground v.1.15,2013-11-24 00:47:00,
2013-11-23 18:48:00,9.1,5.0,30.81,NW,318,0.0,0.0,83,0.00,,,0.00,0,Wunderground v.1.15,2013-11-24 00:48:00,
2013-11-23 18:51:00,9.3,4.9,30.81,NW,318,0.0,0.0,82,0.00,,,0.00,0,Wunderground v.1.15,2013-11-24 00:51:00,
2013-11-23 18:52:00,9.3,4.9,30.81,NW,318,0.0,0.0,82,0.00,,,0.00,0,Wunderground v.1.15,2013-11-24 00:52:00,
2013-11-23 18:53:00,9.3,4.9,30.81,NW,318,0.0,0.0,82,0.00,,,0.00,0,Wunderground v.1.15,2013-11-24 00:53:00,
2013-11-23 18:57:00,9.3,4.9,30.81,NW,318,0.0,0.0,82,0.00,,,0.00,0,Wunderground v.1.15,2013-11-24 00:57:00,
2013-11-23 18:58:00,9.3,4.9,30.81,NW,318,0.0,0.0,82,0.00,,,0.00,0,Wunderground v.1.15,2013-11-24 00:58:00,
2013-11-23 18:59:00,9.3,4.9,30.81,NW,318,0.0,0.0,82,0.00,,,0.00,0,Wunderground v.1.15,2013-11-24 00:59:00,
2013-11-23 19:02:00,9.3,5.2,30.81,NW,318,0.0,0.0,83,0.00,,,0.00,0,Wunderground v.1.15,2013-11-24 01:02:00,
2013-11-23 19:03:00,9.3,5.2,30.81,NW,318,0.0,0.0,83,0.00,,,0.00,0,Wunderground v.1.15,2013-11-24 01:03:00,
2013-11-23 19:04:00,9.3,5.2,30.81,NW,318,0.0,0.0,83,0.00,,,0.00,0,Wunderground v.1.15,2013-11-24 01:04:00,
2013-11-23 19:08:00,9.1,5.0,30.81,NW,318,0.0,0.0,83,0.00,,,0.00,0,Wunderground v.1.15,2013-11-24 01:08:00,
2013-11-23 19:09:00,9.2,5.1,30.81,NW,318,0.0,0.0,83,0.00,,,0.00,0,Wunderground v.1.15,2013-11-24 01:09:00,
2013-11-23 19:13:00,8.9,5.1,30.81,NW,318,0.0,0.0,84,0.00,,,0.00,0,Wunderground v.1.15,2013-11-24 01:13:00,
2013-11-23 19:14:00,8.8,5.0,30.81,NW,318,0.0,0.0,84,0.00,,,0.00,0,Wunderground v.1.15,2013-11-24 01:14:00,
2013-11-23 19:18:00,8.0,4.2,30.82,NW,318,0.0,0.0,84,0.00,,,0.00,0,Wunderground v.1.15,2013-11-24 01:18:00,
2013-11-23 19:19:00,8.0,4.2,30.82,NW,318,0.0,0.0,84,0.00,,,0.00,0,Wunderground v.1.15,2013-11-24 01:19:00,
2013-11-23 19:24:00,6.9,3.1,30.81,NW,318,0.0,0.0,84,0.00,,,0.00,0,Wunderground v.1.15,2013-11-24 01:24:00,
2013-11-23 19:29:00,4.6,0.3,30.82,NW,318,0.0,0.0,82,0.00,,,0.00,0,Wunderground v.1.15,2013-11-24 01:29:00,
2013-11-23 19:30:00,4.5,0.5,30.82,NW,318,0.0,0.0,83,0.00,,,0.00,0,Wunderground v.1.15,2013-11-24 01:30:00,
2013-11-23 19:34:00,5.3,2.0,30.82,NW,318,0.0,0.0,86,0.00,,,0.00,0,Wunderground v.1.15,2013-11-24 01:34:00,
2013-11-23 19:35:00,5.3,2.0,30.82,NW,318,0.0,0.0,86,0.00,,,0.00,0,Wunderground v.1.15,2013-11-24 01:35:00,
2013-11-23 19:39:00,5.8,2.3,30.82,NW,318,0.0,0.0,85,0.00,,,0.00,0,Wunderground v.1.15,2013-11-24 01:39:00,
2013-11-23 19:40:00,5.8,2.3,30.82,NW,318,0.0,0.0,85,0.00,,,0.00,0,Wunderground v.1.15,2013-11-24 01:40:00,
2013-11-23 19:41:00,5.9,2.4,30.82,NW,318,0.0,0.0,85,0.00,,,0.00,0,Wunderground v.1.15,2013-11-24 01:41:00,
2013-11-23 19:44:00,5.9,2.4,30.82,NW,318,0.0,0.0,85,0.00,,,0.00,0,Wunderground v.1.15,2013-11-24 01:44:00,
2013-11-23 19:45:00,5.9,2.4,30.82,NW,318,0.0,0.0,85,0.00,,,0.00,0,Wunderground v.1.15,2013-11-24 01:45:00,
2013-11-23 19:46:00,5.9,2.4,30.82,NW,318,0.0,0.0,85,0.00,,,0.00,0,Wunderground v.1.15,2013-11-24 01:46:00,
2013-11-23 19:49:00,6.1,2.6,30.82,NW,318,0.0,0.0,85,0.00,,,0.00,0,Wunderground v.1.15,2013-11-24 01:49:00,
2013-11-23 19:50:00,6.1,2.6,30.82,NW,318,0.0,0.0,85,0.00,,,0.00,0,Wunderground v.1.15,2013-11-24 01:50:00,
2013-11-23 19:51:00,6.1,2.6,30.82,NW,318,0.0,0.0,85,0.00,,,0.00,0,Wunderground v.1.15,2013-11-24 01:51:00,
2013-11-23 19:52:00,6.1,2.6,30.82,NW,318,0.0,0.0,85,0.00,,,0.00,0,Wunderground v.1.15,2013-11-24 01:52:00,
2013-11-23 19:55:00,6.1,2.3,30.82,NW,318,0.0,0.0,84,0.00,,,0.00,0,Wunderground v.1.15,2013-11-24 01:55:00,
2013-11-23 19:56:00,6.1,2.3,30.82,NW,318,0.0,0.0,84,0.00,,,0.00,0,Wunderground v.1.15,2013-11-24 01:56:00,
2013-11-23 19:57:00,6.2,2.7,30.82,NW,318,0.0,0.0,85,0.00,,,0.00,0,Wunderground v.1.15,2013-11-24 01:57:00,
2013-11-23 20:00:00,6.2,2.7,30.82,NW,318,0.0,0.0,85,0.00,,,0.00,0,Wunderground v.1.15,2013-11-24 02:00:00,
2013-11-23 20:01:00,6.3,2.5,30.82,NW,318,0.0,0.0,84,0.00,,,0.00,0,Wunderground v.1.15,2013-11-24 02:01:00,
2013-11-23 20:02:00,6.2,2.4,30.82,NW,318,0.0,0.0,84,0.00,,,0.00,0,Wunderground v.1.15,2013-11-24 02:02:00,
2013-11-23 20:05:00,6.2,2.4,30.81,NW,318,0.0,0.0,84,0.00,,,0.00,0,Wunderground v.1.15,2013-11-24 02:05:00,
2013-11-23 20:06:00,6.2,2.4,30.81,NW,318,0.0,0.0,84,0.00,,,0.00,0,Wunderground v.1.15,2013-11-24 02:06:00,
2013-11-23 20:07:00,6.2,2.4,30.81,NW,318,0.0,0.0,84,0.00,,,0.00,0,Wunderground v.1.15,2013-11-24 02:07:00,
2013-11-23 20:08:00,6.3,2.5,30.81,NW,318,0.0,0.0,84,0.00,,,0.00,0,Wunderground v.1.15,2013-11-24 02:08:00,
2013-11-23 20:10:00,6.5,3.0,30.81,NW,318,0.0,0.0,85,0.00,,,0.00,0,Wunderground v.1.15,2013-11-24 02:10:00,
2013-11-23 20:11:00,6.4,2.9,30.81,NW,318,0.0,0.0,85,0.00,,,0.00,0,Wunderground v.1.15,2013-11-24 02:11:00,
2013-11-23 20:13:00,6.3,2.5,30.82,NW,318,0.0,0.0,84,0.00,,,0.00,0,Wunderground v.1.15,2013-11-24 02:13:00,
2013-11-23 20:15:00,6.0,2.2,30.82,NW,318,0.0,0.0,84,0.00,,,0.00,0,Wunderground v.1.15,2013-11-24 02:15:00,
2013-11-23 20:16:00,6.1,2.3,30.82,NW,318,0.0,0.0,84,0.00,,,0.00,0,Wunderground v.1.15,2013-11-24 02:16:00,
2013-11-23 20:17:00,6.1,2.3,30.82,NW,318,0.0,0.0,84,0.00,,,0.00,0,Wunderground v.1.15,2013-11-24 02:17:00,
2013-11-23 20:18:00,6.1,2.3,30.82,NW,318,0.0,0.0,84,0.00,,,0.00,0,Wunderground v.1.15,2013-11-24 02:18:00,
2013-11-23 20:19:00,6.2,2.4,30.82,NW,318,0.0,0.0,84,0.00,,,0.00,0,Wunderground v.1.15,2013-11-24 02:19:00,
2013-11-23 20:20:00,6.3,2.8,30.82,NW,318,0.0,0.0,85,0.00,,,0.00,0,Wunderground v.1.15,2013-11-24 02:20:00,
2013-11-23 20:22:00,6.3,2.8,30.82,NW,318,0.0,0.0,85,0.00,,,0.00,0,Wunderground v.1.15,2013-11-24 02:22:00,
2013-11-23 20:23:00,6.2,2.4,30.82,NW,318,0.0,0.0,84,0.00,,,0.00,0,Wunderground v.1.15,2013-11-24 02:23:00,
2013-11-23 20:25:00,6.1,2.3,30.82,NW,318,0.0,0.0,84,0.00,,,0.00,0,Wunderground v.1.15,2013-11-24 02:25:00,
2013-11-23 20:27:00,6.1,2.3,30.82,NW,318,0.0,0.0,84,0.00,,,0.00,0,Wunderground v.1.15,2013-11-24 02:27:00,
2013-11-23 20:28:00,6.0,2.2,30.82,NW,318,0.0,0.0,84,0.00,,,0.00,0,Wunderground v.1.15,2013-11-24 02:28:00,
2013-11-23 20:29:00,6.0,2.2,30.82,NW,318,0.0,0.0,84,0.00,,,0.00,0,Wunderground v.1.15,2013-11-24 02:29:00,
2013-11-23 20:30:00,6.0,2.2,30.82,NW,318,0.0,0.0,84,0.00,,,0.00,0,Wunderground v.1.15,2013-11-24 02:30:00,
2013-11-23 20:31:00,6.0,2.2,30.82,NW,318,0.0,0.0,84,0.00,,,0.00,0,Wunderground v.1.15,2013-11-24 02:31:00,
2013-11-23 20:32:00,6.1,2.3,30.81,NW,318,0.0,0.0,84,0.00,,,0.00,0,Wunderground v.1.15,2013-11-24 02:32:00,
2013-11-23 20:33:00,6.0,2.2,30.81,NW,318,0.0,0.0,84,0.00,,,0.00,0,Wunderground v.1.15,2013-11-24 02:33:00,
2013-11-23 20:35:00,6.0,2.2,30.81,NW,318,0.0,0.0,84,0.00,,,0.00,0,Wunderground v.1.15,2013-11-24 02:35:00,
2013-11-23 20:36:00,6.0,2.5,30.81,NW,318,0.0,0.0,85,0.00,,,0.00,0,Wunderground v.1.15,2013-11-24 02:36:00,
2013-11-23 20:37:00,6.1,2.6,30.81,NW,318,0.0,0.0,85,0.00,,,0.00,0,Wunderground v.1.15,2013-11-24 02:37:00,
2013-11-23 20:38:00,6.2,2.7,30.81,NW,318,0.0,0.0,85,0.00,,,0.00,0,Wunderground v.1.15,2013-11-24 02:38:00,
2013-11-23 20:39:00,6.3,2.8,30.81,NW,318,0.0,0.0,85,0.00,,,0.00,0,Wunderground v.1.15,2013-11-24 02:39:00,
2013-11-23 20:40:00,6.5,3.0,30.81,NW,318,0.0,0.0,85,0.00,,,0.00,0,Wunderground v.1.15,2013-11-24 02:40:00,
2013-11-23 20:41:00,6.7,3.1,30.81,NW,318,0.0,0.0,85,0.00,,,0.00,0,Wunderground v.1.15,2013-11-24 02:41:00,
2013-11-23 20:42:00,6.9,3.3,30.81,NW,318,0.0,0.0,85,0.00,,,0.00,0,Wunderground v.1.15,2013-11-24 02:42:00,
2013-11-23 20:43:00,6.9,3.3,30.81,NW,318,0.0,0.0,85,0.00,,,0.00,0,Wunderground v.1.15,2013-11-24 02:43:00,
2013-11-23 20:44:00,6.8,3.2,30.81,NW,318,0.0,0.0,85,0.00,,,0.00,0,Wunderground v.1.15,2013-11-24 02:44:00,
2013-11-23 20:45:00,6.7,2.9,30.81,NW,318,0.0,0.0,84,0.00,,,0.00,0,Wunderground v.1.15,2013-11-24 02:45:00,
2013-11-23 20:46:00,6.6,2.8,30.81,NW,318,0.0,0.0,84,0.00,,,0.00,0,Wunderground v.1.15,2013-11-24 02:46:00,
2013-11-23 20:47:00,6.7,2.9,30.81,NW,318,0.0,0.0,84,0.00,,,0.00,0,Wunderground v.1.15,2013-11-24 02:47:00,
2013-11-23 20:48:00,6.9,3.1,30.81,NW,318,0.0,0.0,84,0.00,,,0.00,0,Wunderground v.1.15,2013-11-24 02:48:00,
2013-11-23 20:49:00,7.0,3.2,30.81,NW,318,0.0,0.0,84,0.00,,,0.00,0,Wunderground v.1.15,2013-11-24 02:49:00,
2013-11-23 20:50:00,7.4,3.8,30.81,NW,318,0.0,0.0,85,0.00,,,0.00,0,Wunderground v.1.15,2013-11-24 02:50:00,
2013-11-23 20:51:00,7.7,4.1,30.81,NW,318,0.0,0.0,85,0.00,,,0.00,0,Wunderground v.1.15,2013-11-24 02:51:00,
2013-11-23 20:53:00,8.0,4.4,30.81,NW,318,0.0,0.0,85,0.00,,,0.00,0,Wunderground v.1.15,2013-11-24 02:53:00,
2013-11-23 20:54:00,8.1,4.5,30.81,NW,318,0.0,0.0,85,0.00,,,0.00,0,Wunderground v.1.15,2013-11-24 02:54:00,
2013-11-23 20:56:00,8.2,4.4,30.81,NW,318,0.0,0.0,84,0.00,,,0.00,0,Wunderground v.1.15,2013-11-24 02:56:00,
2013-11-23 20:58:00,8.1,4.3,30.81,NW,318,0.0,0.0,84,0.00,,,0.00,0,Wunderground v.1.15,2013-11-24 02:58:00,
2013-11-23 20:59:00,7.1,2.8,30.81,NW,318,0.0,1.0,82,0.00,,,0.00,0,Wunderground v.1.15,2013-11-24 02:59:00,
2013-11-23 21:01:00,6.2,1.9,30.81,NW,318,0.0,0.0,82,0.00,,,0.00,0,Wunderground v.1.15,2013-11-24 03:01:00,
2013-11-23 21:02:00,6.2,1.9,30.81,NW,318,0.0,0.0,82,0.00,,,0.00,0,Wunderground v.1.15,2013-11-24 03:02:00,
2013-11-23 21:03:00,6.2,1.9,30.81,NW,318,0.0,0.0,82,0.00,,,0.00,0,Wunderground v.1.15,2013-11-24 03:03:00,
2013-11-23 21:04:00,6.4,2.3,30.81,NW,318,0.0,0.0,83,0.00,,,0.00,0,Wunderground v.1.15,2013-11-24 03:04:00,
2013-11-23 21:07:00,5.6,1.6,30.81,NW,318,0.0,0.0,83,0.00,,,0.00,0,Wunderground v.1.15,2013-11-24 03:07:00,
2013-11-23 21:08:00,5.4,1.1,30.81,NW,318,0.0,0.0,82,0.00,,,0.00,0,Wunderground v.1.15,2013-11-24 03:08:00,
2013-11-23 21:09:00,5.0,0.7,30.81,NW,318,0.0,0.0,82,0.00,,,0.00,0,Wunderground v.1.15,2013-11-24 03:09:00,
2013-11-23 21:12:00,5.4,1.6,30.81,NW,318,0.0,0.0,84,0.00,,,0.00,0,Wunderground v.1.15,2013-11-24 03:12:00,
2013-11-23 21:13:00,5.5,1.7,30.81,NW,318,0.0,0.0,84,0.00,,,0.00,0,Wunderground v.1.15,2013-11-24 03:13:00,
2013-11-23 21:14:00,5.9,2.4,30.81,NW,318,0.0,0.0,85,0.00,,,0.00,0,Wunderground v.1.15,2013-11-24 03:14:00,
2013-11-23 21:15:00,5.9,2.4,30.81,NW,318,0.0,0.0,85,0.00,,,0.00,0,Wunderground v.1.15,2013-11-24 03:15:00,
2013-11-23 21:17:00,6.0,2.5,30.81,NW,318,0.0,0.0,85,0.00,,,0.00,0,Wunderground v.1.15,2013-11-24 03:17:00,
2013-11-23 21:18:00,5.5,1.7,30.81,NW,318,0.0,0.0,84,0.00,,,0.00,0,Wunderground v.1.15,2013-11-24 03:18:00,
2013-11-23 21:20:00,5.1,1.1,30.81,NW,318,0.0,0.0,83,0.00,,,0.00,0,Wunderground v.1.15,2013-11-24 03:20:00,
2013-11-23 21:21:00,5.1,1.3,30.81,NW,318,0.0,0.0,84,0.00,,,0.00,0,Wunderground v.1.15,2013-11-24 03:21:00,
2013-11-23 21:22:00,4.9,1.1,30.81,NW,318,0.0,0.0,84,0.00,,,0.00,0,Wunderground v.1.15,2013-11-24 03:22:00,
2013-11-23 21:23:00,4.9,1.1,30.81,NW,318,0.0,0.0,84,0.00,,,0.00,0,Wunderground v.1.15,2013-11-24 03:23:00,
2013-11-23 21:24:00,4.9,1.1,30.81,NW,318,0.0,0.0,84,0.00,,,0.00,0,Wunderground v.1.15,2013-11-24 03:24:00,
2013-11-23 21:26:00,5.3,1.8,30.81,NW,318,0.0,0.0,85,0.00,,,0.00,0,Wunderground v.1.15,2013-11-24 03:26:00,
2013-11-23 21:27:00,5.4,1.9,30.81,NW,318,0.0,0.0,85,0.00,,,0.00,0,Wunderground v.1.15,2013-11-24 03:27:00,
2013-11-23 21:28:00,5.3,1.8,30.81,NW,318,0.0,0.0,85,0.00,,,0.00,0,Wunderground v.1.15,2013-11-24 03:28:00,
2013-11-23 21:29:00,5.3,1.8,30.81,NW,318,0.0,0.0,85,0.00,,,0.00,0,Wunderground v.1.15,2013-11-24 03:29:00,
2013-11-23 21:31:00,5.0,1.5,30.81,NW,318,0.0,0.0,85,0.00,,,0.00,0,Wunderground v.1.15,2013-11-24 03:31:00,
2013-11-23 21:32:00,4.9,1.4,30.80,NW,318,0.0,0.0,85,0.00,,,0.00,0,Wunderground v.1.15,2013-11-24 03:32:00,
2013-11-23 21:33:00,4.8,1.3,30.80,NW,318,0.0,0.0,85,0.00,,,0.00,0,Wunderground v.1.15,2013-11-24 03:33:00,
2013-11-23 21:34:00,4.7,1.2,30.80,NW,318,0.0,0.0,85,0.00,,,0.00,0,Wunderground v.1.15,2013-11-24 03:34:00,
2013-11-23 21:37:00,5.3,2.0,30.80,NW,318,0.0,0.0,86,0.00,,,0.00,0,Wunderground v.1.15,2013-11-24 03:37:00,
2013-11-23 21:38:00,5.4,2.1,30.80,NW,318,0.0,0.0,86,0.00,,,0.00,0,Wunderground v.1.15,2013-11-24 03:38:00,
2013-11-23 21:39:00,5.5,2.2,30.80,NW,318,0.0,0.0,86,0.00,,,0.00,0,Wunderground v.1.15,2013-11-24 03:39:00,
2013-11-23 21:42:00,5.8,2.5,30.80,NW,318,0.0,0.0,86,0.00,,,0.00,0,Wunderground v.1.15,2013-11-24 03:42:00,
2013-11-23 21:43:00,5.8,2.5,30.80,NW,318,0.0,0.0,86,0.00,,,0.00,0,Wunderground v.1.15,2013-11-24 03:43:00,
2013-11-23 21:44:00,5.9,2.4,30.80,NW,318,0.0,0.0,85,0.00,,,0.00,0,Wunderground v.1.15,2013-11-24 03:44:00,
2013-11-23 21:45:00,5.9,2.4,30.80,NW,318,0.0,0.0,85,0.00,,,0.00,0,Wunderground v.1.15,2013-11-24 03:45:00,
2013-11-23 21:47:00,6.0,2.5,30.80,NW,318,0.0,0.0,85,0.00,,,0.00,0,Wunderground v.1.15,2013-11-24 03:47:00,
2013-11-23 21:48:00,6.0,2.5,30.80,NW,318,0.0,0.0,85,0.00,,,0.00,0,Wunderground v.1.15,2013-11-24 03:48:00,
2013-11-23 21:49:00,6.1,2.6,30.80,NW,318,0.0,0.0,85,0.00,,,0.00,0,Wunderground v.1.15,2013-11-24 03:49:00,
2013-11-23 21:50:00,6.2,2.7,30.80,NW,318,0.0,0.0,85,0.00,,,0.00,0,Wunderground v.1.15,2013-11-24 03:50:00,
2013-11-23 21:53:00,6.0,2.5,30.80,NW,318,0.0,0.0,85,0.00,,,0.00,0,Wunderground v.1.15,2013-11-24 03:53:00,
2013-11-23 21:54:00,6.0,2.5,30.80,NW,318,0.0,0.0,85,0.00,,,0.00,0,Wunderground v.1.15,2013-11-24 03:54:00,
2013-11-23 21:57:00,6.1,2.6,30.81,NW,318,0.0,0.0,85,0.00,,,0.00,0,Wunderground v.1.15,2013-11-24 03:57:00,
2013-11-23 21:58:00,6.2,2.7,30.81,NW,318,0.0,0.0,85,0.00,,,0.00,0,Wunderground v.1.15,2013-11-24 03:58:00,
2013-11-23 21:59:00,6.1,2.6,30.81,NW,318,0.0,0.0,85,0.00,,,0.00,0,Wunderground v.1.15,2013-11-24 03:59:00,
2013-11-23 22:00:00,5.8,2.3,30.81,NW,318,0.0,0.0,85,0.00,,,0.00,0,Wunderground v.1.15,2013-11-24 04:00:00,
2013-11-23 22:02:00,5.1,1.3,30.81,NW,318,0.0,0.0,84,0.00,,,0.00,0,Wunderground v.1.15,2013-11-24 04:02:00,
2013-11-23 22:03:00,5.0,1.2,30.81,NW,318,0.0,0.0,84,0.00,,,0.00,0,Wunderground v.1.15,2013-11-24 04:03:00,
2013-11-23 22:04:00,5.0,1.2,30.80,NW,318,0.0,0.0,84,0.00,,,0.00,0,Wunderground v.1.15,2013-11-24 04:04:00,
2013-11-23 22:05:00,5.1,1.6,30.81,NW,318,0.0,0.0,85,0.00,,,0.00,0,Wunderground v.1.15,2013-11-24 04:05:00,
2013-11-23 22:07:00,5.3,1.8,30.81,NW,318,0.0,0.0,85,0.00,,,0.00,0,Wunderground v.1.15,2013-11-24 04:07:00,
2013-11-23 22:08:00,5.5,2.2,30.81,NW,318,0.0,0.0,86,0.00,,,0.00,0,Wunderground v.1.15,2013-11-24 04:08:00,
2013-11-23 22:09:00,5.5,2.2,30.81,NW,318,0.0,0.0,86,0.00,,,0.00,0,Wunderground v.1.15,2013-11-24 04:09:00,
2013-11-23 22:10:00,5.6,2.3,30.81,NW,318,0.0,0.0,86,0.00,,,0.00,0,Wunderground v.1.15,2013-11-24 04:10:00,
2013-11-23 22:13:00,5.8,2.5,30.80,NW,318,0.0,0.0,86,0.00,,,0.00,0,Wunderground v.1.15,2013-11-24 04:13:00,
2013-11-23 22:14:00,5.9,2.6,30.80,NW,318,0.0,0.0,86,0.00,,,0.00,0,Wunderground v.1.15,2013-11-24 04:14:00,
2013-11-23 22:15:00,5.9,2.6,30.80,NW,318,0.0,0.0,86,0.00,,,0.00,0,Wunderground v.1.15,2013-11-24 04:15:00,
2013-11-23 22:17:00,6.1,2.8,30.80,NW,318,0.0,0.0,86,0.00,,,0.00,0,Wunderground v.1.15,2013-11-24 04:17:00,
2013-11-23 22:18:00,6.2,2.9,30.80,NW,318,0.0,0.0,86,0.00,,,0.00,0,Wunderground v.1.15,2013-11-24 04:18:00,
2013-11-23 22:19:00,6.1,2.8,30.80,NW,318,0.0,0.0,86,0.00,,,0.00,0,Wunderground v.1.15,2013-11-24 04:19:00,
2013-11-23 22:20:00,6.1,2.6,30.80,NW,318,0.0,0.0,85,0.00,,,0.00,0,Wunderground v.1.15,2013-11-24 04:20:00,
2013-11-23 22:22:00,6.2,2.9,30.80,NW,318,0.0,0.0,86,0.00,,,0.00,0,Wunderground v.1.15,2013-11-24 04:22:00,
2013-11-23 22:23:00,6.1,2.6,30.80,NW,318,0.0,0.0,85,0.00,,,0.00,0,Wunderground v.1.15,2013-11-24 04:23:00,
2013-11-23 22:24:00,6.1,2.6,30.80,NW,318,0.0,0.0,85,0.00,,,0.00,0,Wunderground v.1.15,2013-11-24 04:24:00,
2013-11-23 22:25:00,6.1,2.6,30.80,NW,318,0.0,0.0,85,0.00,,,0.00,0,Wunderground v.1.15,2013-11-24 04:25:00,
2013-11-23 22:27:00,6.0,2.5,30.80,NW,318,0.0,0.0,85,0.00,,,0.00,0,Wunderground v.1.15,2013-11-24 04:27:00,
2013-11-23 22:28:00,5.9,2.4,30.80,NW,318,0.0,0.0,85,0.00,,,0.00,0,Wunderground v.1.15,2013-11-24 04:28:00,
2013-11-23 22:29:00,6.0,2.5,30.80,NW,318,0.0,0.0,85,0.00,,,0.00,0,Wunderground v.1.15,2013-11-24 04:29:00,
2013-11-23 22:30:00,6.0,2.5,30.80,NW,318,0.0,0.0,85,0.00,,,0.00,0,Wunderground v.1.15,2013-11-24 04:30:00,
2013-11-23 22:32:00,6.5,3.2,30.80,NW,318,0.0,0.0,86,0.00,,,0.00,0,Wunderground v.1.15,2013-11-24 04:32:00,
2013-11-23 22:33:00,6.6,3.3,30.80,NW,318,0.0,0.0,86,0.00,,,0.00,0,Wunderground v.1.15,2013-11-24 04:33:00,
2013-11-23 22:34:00,6.7,3.4,30.80,NW,318,0.0,0.0,86,0.00,,,0.00,0,Wunderground v.1.15,2013-11-24 04:34:00,
2013-11-23 22:35:00,6.7,3.4,30.80,NW,318,0.0,0.0,86,0.00,,,0.00,0,Wunderground v.1.15,2013-11-24 04:35:00,
2013-11-23 22:36:00,6.7,3.4,30.80,NW,318,0.0,0.0,86,0.00,,,0.00,0,Wunderground v.1.15,2013-11-24 04:36:00,
2013-11-23 22:38:00,6.4,2.9,30.80,NW,318,0.0,0.0,85,0.00,,,0.00,0,Wunderground v.1.15,2013-11-24 04:38:00,
2013-11-23 22:39:00,6.0,2.2,30.80,NW,318,0.0,0.0,84,0.00,,,0.00,0,Wunderground v.1.15,2013-11-24 04:39:00,
2013-11-23 22:41:00,5.7,1.9,30.80,NW,318,0.0,0.0,84,0.00,,,0.00,0,Wunderground v.1.15,2013-11-24 04:41:00,
2013-11-23 22:43:00,5.1,1.3,30.80,NW,318,0.0,0.0,84,0.00,,,0.00,0,Wunderground v.1.15,2013-11-24 04:43:00,
2013-11-23 22:45:00,4.7,0.9,30.80,NW,318,0.0,0.0,84,0.00,,,0.00,0,Wunderground v.1.15,2013-11-24 04:45:00,
2013-11-23 22:46:00,4.4,0.6,30.80,NW,318,0.0,0.0,84,0.00,,,0.00,0,Wunderground v.1.15,2013-11-24 04:46:00,
2013-11-23 22:50:00,4.9,1.6,30.80,NW,318,0.0,0.0,86,0.00,,,0.00,0,Wunderground v.1.15,2013-11-24 04:50:00,
2013-11-23 22:51:00,5.0,1.7,30.80,NW,318,0.0,0.0,86,0.00,,,0.00,0,Wunderground v.1.15,2013-11-24 04:51:00,
2013-11-23 22:55:00,4.4,0.9,30.80,NW,318,0.0,0.0,85,0.00,,,0.00,0,Wunderground v.1.15,2013-11-24 04:55:00,
2013-11-23 22:56:00,4.2,0.7,30.80,NW,318,0.0,0.0,85,0.00,,,0.00,0,Wunderground v.1.15,2013-11-24 04:56:00,
2013-11-23 22:57:00,4.1,0.6,30.80,NW,318,0.0,0.0,85,0.00,,,0.00,0,Wunderground v.1.15,2013-11-24 04:57:00,
2013-11-23 23:01:00,4.7,1.7,30.80,NW,318,0.0,0.0,87,0.00,,,0.00,0,Wunderground v.1.15,2013-11-24 05:01:00,
2013-11-23 23:06:00,5.1,2.1,30.80,NW,318,0.0,0.0,87,0.00,,,0.00,0,Wunderground v.1.15,2013-11-24 05:06:00,
2013-11-23 23:09:00,4.8,1.5,30.80,NW,318,0.0,0.0,86,0.00,,,0.00,0,Wunderground v.1.15,2013-11-24 05:09:00,
2013-11-23 23:11:00,5.0,1.7,30.80,NW,318,0.0,0.0,86,0.00,,,0.00,0,Wunderground v.1.15,2013-11-24 05:11:00,
2013-11-23 23:12:00,5.1,1.8,30.80,NW,318,0.0,0.0,86,0.00,,,0.00,0,Wunderground v.1.15,2013-11-24 05:12:00,
2013-11-23 23:14:00,5.3,2.0,30.80,NW,318,0.0,0.0,86,0.00,,,0.00,0,Wunderground v.1.15,2013-11-24 05:14:00,
2013-11-23 23:16:00,5.3,2.0,30.80,NW,318,0.0,0.0,86,0.00,,,0.00,0,Wunderground v.1.15,2013-11-24 05:16:00,
2013-11-23 23:17:00,5.3,2.0,30.80,NW,318,0.0,0.0,86,0.00,,,0.00,0,Wunderground v.1.15,2013-11-24 05:17:00,
2013-11-23 23:19:00,5.4,2.1,30.80,NW,318,0.0,0.0,86,0.00,,,0.00,0,Wunderground v.1.15,2013-11-24 05:19:00,
2013-11-23 23:22:00,5.4,2.1,30.80,NW,318,0.0,0.0,86,0.00,,,0.00,0,Wunderground v.1.15,2013-11-24 05:22:00,
2013-11-23 23:24:00,5.4,2.1,30.80,NW,318,0.0,0.0,86,0.00,,,0.00,0,Wunderground v.1.15,2013-11-24 05:24:00,
2013-11-23 23:27:00,5.5,2.2,30.79,NW,318,0.0,0.0,86,0.00,,,0.00,0,Wunderground v.1.15,2013-11-24 05:27:00,
2013-11-23 23:28:00,5.5,2.2,30.79,NW,318,0.0,0.0,86,0.00,,,0.00,0,Wunderground v.1.15,2013-11-24 05:28:00,
2013-11-23 23:30:00,5.6,2.3,30.79,NW,318,0.0,0.0,86,0.00,,,0.00,0,Wunderground v.1.15,2013-11-24 05:30:00,
2013-11-23 23:32:00,5.7,2.4,30.79,NW,318,0.0,0.0,86,0.00,,,0.00,0,Wunderground v.1.15,2013-11-24 05:32:00,
2013-11-23 23:33:00,5.7,2.4,30.79,NW,318,0.0,0.0,86,0.00,,,0.00,0,Wunderground v.1.15,2013-11-24 05:33:00,
2013-11-23 23:35:00,5.7,2.4,30.79,NW,318,0.0,0.0,86,0.00,,,0.00,0,Wunderground v.1.15,2013-11-24 05:35:00,
2013-11-23 23:37:00,5.7,2.4,30.79,NW,318,0.0,0.0,86,0.00,,,0.00,0,Wunderground v.1.15,2013-11-24 05:37:00,
2013-11-23 23:38:00,5.6,2.3,30.79,NW,318,0.0,0.0,86,0.00,,,0.00,0,Wunderground v.1.15,2013-11-24 05:38:00,
2013-11-23 23:41:00,5.1,1.6,30.79,NW,318,0.0,0.0,85,0.00,,,0.00,0,Wunderground v.1.15,2013-11-24 05:41:00,
2013-11-23 23:42:00,5.0,1.5,30.79,NW,318,0.0,0.0,85,0.00,,,0.00,0,Wunderground v.1.15,2013-11-24 05:42:00,
2013-11-23 23:43:00,5.0,1.5,30.79,NW,318,0.0,0.0,85,0.00,,,0.00,0,Wunderground v.1.15,2013-11-24 05:43:00,
2013-11-23 23:46:00,4.6,1.1,30.79,NW,318,0.0,0.0,85,0.00,,,0.00,0,Wunderground v.1.15,2013-11-24 05:46:00,
2013-11-23 23:48:00,4.6,1.1,30.79,NW,318,0.0,0.0,85,0.00,,,0.00,0,Wunderground v.1.15,2013-11-24 05:48:00,
2013-11-23 23:51:00,4.9,1.6,30.79,NW,318,0.0,0.0,86,0.00,,,0.00,0,Wunderground v.1.15,2013-11-24 05:51:00,
2013-11-23 23:53:00,4.8,1.5,30.79,NW,318,0.0,0.0,86,0.00,,,0.00,0,Wunderground v.1.15,2013-11-24 05:53:00,
2013-11-23 23:55:00,5.0,1.7,30.79,NW,318,0.0,0.0,86,0.00,,,0.00,0,Wunderground v.1.15,2013-11-24 05:55:00,
2013-11-23 23:57:00,5.4,2.4,30.79,NW,318,0.0,0.0,87,0.00,,,0.00,0,Wunderground v.1.15,2013-11-24 05:57:00,
2013-11-23 23:58:00,5.5,2.5,30.79,NW,318,0.0,0.0,87,0.00,,,0.00,0,Wunderground v.1.15,2013-11-24 05:58:00,